| time (UTC) | temp F | wind direction | speed MPH | gust MPH | rain 1hr in | rain 24hr in | rain mn in | humidity % | barometer mb |
| 20260507012803 | 78 | 304 | 0.0 | 4.0 | 0.00 | 0.00 | 0.00 | 70 | 1012.6 |
| 20260507012702 | 78 | 286 | 0.0 | 4.0 | 0.00 | 0.00 | 0.00 | 70 | 1012.5 |
| 20260507012602 | 78 | 302 | 0.0 | 4.0 | 0.00 | 0.00 | 0.00 | 70 | 1012.6 |
| 20260507012506 | 78 | 285 | 4.0 | 5.0 | 0.00 | 0.00 | 0.00 | 70 | 1012.6 |
| 20260507012306 | 78 | 271 | 1.0 | 5.0 | 0.00 | 0.00 | 0.00 | 70 | 1012.5 |
| 20260507012203 | 78 | 253 | 3.0 | 5.0 | 0.00 | 0.00 | 0.00 | 70 | 1012.5 |
| 20260507012006 | 78 | 286 | 2.0 | 5.0 | 0.00 | 0.00 | 0.00 | 70 | 1012.4 |
| 20260507011903 | 78 | 317 | 2.0 | 5.0 | 0.00 | 0.00 | 0.00 | 70 | 1012.6 |
| 20260507011802 | 78 | 290 | 2.0 | 5.0 | 0.00 | 0.00 | 0.00 | 70 | 1012.6 |
| 20260507011602 | 78 | 259 | 3.0 | 5.0 | 0.00 | 0.00 | 0.00 | 70 | 1012.7 |
| 20260507011506 | 78 | 270 | 2.0 | 6.0 | 0.00 | 0.00 | 0.00 | 70 | 1012.7 |
| 20260507011402 | 78 | 294 | 2.0 | 6.0 | 0.00 | 0.00 | 0.00 | 70 | 1012.8 |
| 20260507011203 | 79 | 285 | 1.0 | 6.0 | 0.00 | 0.00 | 0.00 | 70 | 1012.8 |
| 20260507011006 | 79 | 303 | 3.0 | 6.0 | 0.00 | 0.00 | 0.00 | 69 | 1012.7 |
| 20260507010902 | 79 | 267 | 4.0 | 6.0 | 0.00 | 0.00 | 0.00 | 69 | 1012.7 |
| 20260507010802 | 79 | 40 | 0.0 | 6.0 | 0.00 | 0.00 | 0.00 | 69 | 1012.6 |
| 20260507010603 | 79 | 261 | 0.0 | 4.0 | 0.00 | 0.00 | 0.00 | 69 | 1012.6 |
| 20260507010506 | 79 | 335 | 2.0 | 4.0 | 0.00 | 0.00 | 0.00 | 69 | 1012.7 |
| 20260507010404 | 79 | 287 | 0.0 | 4.0 | 0.00 | 0.00 | 0.00 | 69 | 1012.7 |
| 20260507010202 | 79 | 293 | 0.0 | 4.0 | 0.00 | 0.00 | 0.00 | 69 | 1012.7 |
| 20260507010104 | 79 | 273 | 1.0 | 4.0 | 0.00 | 0.00 | 0.00 | 69 | 1012.7 |
| 20260507010008 | 79 | 270 | 3.0 | 4.0 | 0.00 | 0.00 | 0.00 | 69 | 1012.7 |
| 20260507005903 | 79 | 267 | 1.0 | 4.0 | 0.00 | 0.00 | 0.00 | 69 | 1012.8 |
| 20260507005803 | 79 | 221 | 2.0 | 4.0 | 0.00 | 0.00 | 0.00 | 69 | 1012.7 |
| 20260507005703 | 79 | 274 | 1.0 | 4.0 | 0.00 | 0.00 | 0.00 | 69 | 1012.7 |
| 20260507005602 | 79 | 292 | 2.0 | 4.0 | 0.00 | 0.00 | 0.00 | 69 | 1012.7 |
| 20260507005305 | 79 | 265 | 2.0 | 7.0 | 0.00 | 0.00 | 0.00 | 69 | 1012.7 |
| 20260507005102 | 79 | 294 | 2.0 | 7.0 | 0.00 | 0.00 | 0.00 | 68 | 1012.7 |
| 20260507005006 | 79 | 271 | 1.0 | 7.0 | 0.00 | 0.00 | 0.00 | 68 | 1012.7 |
| 20260507004902 | 79 | 349 | 4.0 | 7.0 | 0.00 | 0.00 | 0.00 | 68 | 1012.6 |
| 20260507004803 | 79 | 279 | 3.0 | 7.0 | 0.00 | 0.00 | 0.00 | 68 | 1012.6 |
| 20260507004703 | 79 | 270 | 2.0 | 7.0 | 0.00 | 0.00 | 0.00 | 68 | 1012.7 |
| 20260507004602 | 79 | 255 | 3.0 | 7.0 | 0.00 | 0.00 | 0.00 | 68 | 1012.7 |
| 20260507004506 | 79 | 354 | 7.0 | 7.0 | 0.00 | 0.00 | 0.00 | 68 | 1012.7 |
| 20260507004402 | 79 | 261 | 1.0 | 4.0 | 0.00 | 0.00 | 0.00 | 68 | 1012.7 |
| 20260507004302 | 79 | 311 | 2.0 | 4.0 | 0.00 | 0.00 | 0.00 | 68 | 1012.7 |
| 20260507004103 | 79 | 360 | 2.0 | 4.0 | 0.00 | 0.00 | 0.00 | 68 | 1012.8 |
| 20260507003804 | 79 | 326 | 3.0 | 4.0 | 0.00 | 0.00 | 0.00 | 67 | 1012.8 |
| 20260507003703 | 79 | 279 | 3.0 | 4.0 | 0.00 | 0.00 | 0.00 | 67 | 1012.8 |
| 20260507003603 | 79 | 253 | 2.0 | 4.0 | 0.00 | 0.00 | 0.00 | 67 | 1012.8 |
| 20260507003506 | 79 | 270 | 3.0 | 4.0 | 0.00 | 0.00 | 0.00 | 67 | 1012.9 |
| 20260507003403 | 80 | 276 | 2.0 | 4.0 | 0.00 | 0.00 | 0.00 | 67 | 1012.9 |
| 20260507003302 | 80 | 271 | 2.0 | 4.0 | 0.00 | 0.00 | 0.00 | 67 | 1013.0 |
| 20260507003203 | 80 | 243 | 3.0 | 4.0 | 0.00 | 0.00 | 0.00 | 67 | 1012.9 |
| 20260507003102 | 79 | 260 | 3.0 | 4.0 | 0.00 | 0.00 | 0.00 | 67 | 1012.9 |
| 20260507003008 | 80 | 283 | 2.0 | 4.0 | 0.00 | 0.00 | 0.00 | 67 | 1012.9 |
| 20260507002904 | 80 | 296 | 2.0 | 4.0 | 0.00 | 0.00 | 0.00 | 66 | 1012.8 |
| 20260507002803 | 80 | 304 | 0.0 | 3.0 | 0.00 | 0.00 | 0.00 | 66 | 1012.8 |
| 20260507002702 | 80 | 282 | 2.0 | 3.0 | 0.00 | 0.00 | 0.00 | 66 | 1012.7 |
| 20260507002602 | 80 | 307 | 2.0 | 3.0 | 0.00 | 0.00 | 0.00 | 66 | 1012.7 |
| 20260507002505 | 80 | 329 | 3.0 | 3.0 | 0.00 | 0.00 | 0.00 | 66 | 1012.7 |
| 20260507002403 | 80 | 267 | 0.0 | 4.0 | 0.00 | 0.00 | 0.00 | 65 | 1012.7 |
| 20260507002306 | 80 | 286 | 3.0 | 4.0 | 0.00 | 0.00 | 0.00 | 65 | 1012.6 |
| 20260507002102 | 80 | 270 | 2.0 | 4.0 | 0.00 | 0.00 | 0.00 | 65 | 1012.7 |
| 20260507002006 | 80 | 250 | 2.0 | 4.0 | 0.00 | 0.00 | 0.00 | 65 | 1012.7 |
| 20260507001902 | 80 | 264 | 3.0 | 4.0 | 0.00 | 0.00 | 0.00 | 65 | 1012.7 |
| 20260507001803 | 80 | 257 | 2.0 | 4.0 | 0.00 | 0.00 | 0.00 | 65 | 1012.7 |
| 20260507001704 | 80 | 334 | 2.0 | 4.0 | 0.00 | 0.00 | 0.00 | 64 | 1012.6 |
| 20260507001602 | 80 | 289 | 3.0 | 4.0 | 0.00 | 0.00 | 0.00 | 64 | 1012.6 |
| 20260507001506 | 80 | 271 | 2.0 | 4.0 | 0.00 | 0.00 | 0.00 | 64 | 1012.6 |
| 20260507001403 | 81 | 301 | 2.0 | 4.0 | 0.00 | 0.00 | 0.00 | 64 | 1012.7 |
| 20260507001303 | 81 | 251 | 2.0 | 4.0 | 0.00 | 0.00 | 0.00 | 64 | 1012.7 |
| 20260507001204 | 81 | 238 | 4.0 | 4.0 | 0.00 | 0.00 | 0.00 | 64 | 1012.8 |
| 20260507001102 | 81 | 286 | 0.0 | 4.0 | 0.00 | 0.00 | 0.00 | 64 | 1012.8 |
| 20260507001007 | 81 | 308 | 0.0 | 4.0 | 0.00 | 0.00 | 0.00 | 63 | 1012.8 |
| 20260507000903 | 81 | 259 | 0.0 | 4.0 | 0.00 | 0.00 | 0.00 | 63 | 1012.8 |
| 20260507000702 | 81 | 303 | 2.0 | 4.0 | 0.00 | 0.00 | 0.00 | 63 | 1012.8 |
| 20260507000405 | 81 | 296 | 2.0 | 4.0 | 0.00 | 0.00 | 0.00 | 63 | 1012.8 |
| 20260507000303 | 81 | 32 | 1.0 | 4.0 | 0.00 | 0.00 | 0.00 | 63 | 1012.8 |
| 20260507000204 | 81 | 258 | 3.0 | 4.0 | 0.00 | 0.00 | 0.00 | 62 | 1012.8 |
| 20260506235902 | 81 | 289 | 1.0 | 4.0 | 0.00 | 0.00 | 0.00 | 62 | 1013.1 |
| 20260506235701 | 81 | 273 | 2.0 | 4.0 | 0.00 | 0.00 | 0.00 | 62 | 1012.8 |
| 20260506235602 | 81 | 254 | 0.0 | 4.0 | 0.00 | 0.00 | 0.00 | 62 | 1012.8 |
| 20260506235505 | 81 | 259 | 3.0 | 4.0 | 0.00 | 0.00 | 0.00 | 62 | 1012.8 |
| 20260506235403 | 81 | 248 | 3.0 | 4.0 | 0.00 | 0.00 | 0.00 | 61 | 1012.8 |
| 20260506235306 | 81 | 267 | 0.0 | 4.0 | 0.00 | 0.00 | 0.00 | 62 | 1012.8 |
| 20260506235202 | 81 | 256 | 1.0 | 4.0 | 0.00 | 0.00 | 0.00 | 61 | 1012.8 |
| 20260506235102 | 81 | 272 | 3.0 | 4.0 | 0.00 | 0.00 | 0.00 | 61 | 1012.8 |
| 20260506235005 | 81 | 284 | 3.0 | 4.0 | 0.00 | 0.00 | 0.00 | 61 | 1012.8 |
| 20260506234901 | 81 | 274 | 3.0 | 4.0 | 0.00 | 0.00 | 0.00 | 61 | 1012.7 |
| 20260506234801 | 81 | 240 | 2.0 | 3.0 | 0.00 | 0.00 | 0.00 | 61 | 1012.7 |
| 20260506234703 | 81 | 275 | 2.0 | 3.0 | 0.00 | 0.00 | 0.00 | 61 | 1012.7 |
| 20260506234602 | 81 | 259 | 0.0 | 4.0 | 0.00 | 0.00 | 0.00 | 61 | 1012.7 |
| 20260506234506 | 81 | 249 | 3.0 | 4.0 | 0.00 | 0.00 | 0.00 | 60 | 1012.7 |
| 20260506234401 | 81 | 264 | 1.0 | 4.0 | 0.00 | 0.00 | 0.00 | 60 | 1012.7 |
| 20260506234301 | 81 | 279 | 1.0 | 4.0 | 0.00 | 0.00 | 0.00 | 60 | 1012.6 |
| 20260506234202 | 81 | 238 | 0.0 | 4.0 | 0.00 | 0.00 | 0.00 | 60 | 1012.6 |
| 20260506233901 | 82 | 285 | 1.0 | 4.0 | 0.00 | 0.00 | 0.00 | 60 | 1012.6 |
| 20260506233801 | 82 | 260 | 2.0 | 4.0 | 0.00 | 0.00 | 0.00 | 60 | 1012.5 |
| 20260506233701 | 82 | 283 | 3.0 | 3.0 | 0.00 | 0.00 | 0.00 | 59 | 1012.5 |
| 20260506233601 | 82 | 286 | 0.0 | 3.0 | 0.00 | 0.00 | 0.00 | 59 | 1012.5 |
| 20260506233505 | 82 | 280 | 2.0 | 3.0 | 0.00 | 0.00 | 0.00 | 59 | 1012.5 |
| 20260506233401 | 82 | 277 | 1.0 | 4.0 | 0.00 | 0.00 | 0.00 | 59 | 1012.6 |
| 20260506233302 | 82 | 272 | 2.0 | 4.0 | 0.00 | 0.00 | 0.00 | 59 | 1012.6 |
| 20260506233201 | 82 | 252 | 0.0 | 4.0 | 0.00 | 0.00 | 0.00 | 59 | 1012.6 |
| 20260506232902 | 82 | 279 | 2.0 | 4.0 | 0.00 | 0.00 | 0.00 | 59 | 1012.6 |
| 20260506232802 | 82 | 279 | 0.0 | 4.0 | 0.00 | 0.00 | 0.00 | 59 | 1012.6 |
| 20260506232701 | 82 | 265 | 2.0 | 4.0 | 0.00 | 0.00 | 0.00 | 59 | 1012.6 |
| 20260506232601 | 82 | 302 | 1.0 | 4.0 | 0.00 | 0.00 | 0.00 | 59 | 1012.7 |
| 20260506232505 | 82 | 242 | 2.0 | 4.0 | 0.00 | 0.00 | 0.00 | 59 | 1012.7 |
| 20260506232306 | 82 | 248 | 2.0 | 4.0 | 0.00 | 0.00 | 0.00 | 59 | 1012.7 |
| 20260506232103 | 82 | 269 | 1.0 | 4.0 | 0.00 | 0.00 | 0.00 | 59 | 1012.7 |
| 20260506232005 | 82 | 285 | 0.0 | 4.0 | 0.00 | 0.00 | 0.00 | 59 | 1012.7 |
| 20260506231901 | 82 | 299 | 2.0 | 5.0 | 0.00 | 0.00 | 0.00 | 58 | 1012.7 |
| 20260506231801 | 82 | 258 | 3.0 | 7.0 | 0.00 | 0.00 | 0.00 | 58 | 1012.6 |
| 20260506231702 | 82 | 244 | 0.0 | 7.0 | 0.00 | 0.00 | 0.00 | 58 | 1012.6 |
| 20260506231601 | 82 | 278 | 3.0 | 7.0 | 0.00 | 0.00 | 0.00 | 58 | 1012.7 |
| 20260506231506 | 82 | 307 | 1.0 | 7.0 | 0.00 | 0.00 | 0.00 | 58 | 1012.7 |
| 20260506231402 | 82 | 13 | 1.0 | 7.0 | 0.00 | 0.00 | 0.00 | 58 | 1012.7 |
| 20260506231301 | 83 | 288 | 0.0 | 7.0 | 0.00 | 0.00 | 0.00 | 58 | 1012.7 |
| 20260506231202 | 83 | 345 | 1.0 | 7.0 | 0.00 | 0.00 | 0.00 | 58 | 1012.6 |
| 20260506231101 | 83 | 227 | 2.0 | 7.0 | 0.00 | 0.00 | 0.00 | 58 | 1012.7 |
| 20260506231005 | 83 | 240 | 2.0 | 7.0 | 0.00 | 0.00 | 0.00 | 58 | 1012.7 |
| 20260506230902 | 83 | 229 | 2.0 | 6.0 | 0.00 | 0.00 | 0.00 | 58 | 1012.6 |
| 20260506230801 | 83 | 333 | 2.0 | 6.0 | 0.00 | 0.00 | 0.00 | 58 | 1012.7 |
| 20260506230602 | 83 | 284 | 0.0 | 6.0 | 0.00 | 0.00 | 0.00 | 57 | 1012.7 |
| 20260506230504 | 83 | 279 | 3.0 | 6.0 | 0.00 | 0.00 | 0.00 | 57 | 1012.6 |
| 20260506230403 | 83 | 156 | 0.0 | 6.0 | 0.00 | 0.00 | 0.00 | 57 | 1012.6 |
| 20260506230301 | 83 | 243 | 2.0 | 6.0 | 0.00 | 0.00 | 0.00 | 57 | 1012.5 |
| 20260506230202 | 83 | 19 | 0.0 | 6.0 | 0.00 | 0.00 | 0.00 | 57 | 1012.5 |
| 20260506230007 | 83 | 227 | 5.0 | 6.0 | 0.00 | 0.00 | 0.00 | 56 | 1012.6 |
| 20260506225902 | 83 | 189 | 0.0 | 6.0 | 0.00 | 0.00 | 0.00 | 56 | 1012.4 |
| 20260506225802 | 83 | 167 | 0.0 | 6.0 | 0.00 | 0.00 | 0.00 | 57 | 1012.5 |
| 20260506225702 | 83 | 262 | 0.0 | 6.0 | 0.00 | 0.00 | 0.00 | 57 | 1012.5 |
| 20260506225602 | 83 | 131 | 0.0 | 6.0 | 0.00 | 0.00 | 0.00 | 57 | 1012.5 |
| 20260506225505 | 83 | 278 | 2.0 | 6.0 | 0.00 | 0.00 | 0.00 | 56 | 1012.5 |
| 20260506225402 | 83 | 262 | 2.0 | 6.0 | 0.00 | 0.00 | 0.00 | 56 | 1012.5 |
| 20260506225300 | 83 | 211 | 2.0 | 4.0 | 0.00 | 0.00 | 0.00 | 56 | 1012.4 |
| 20260506225201 | 84 | 320 | 1.0 | 4.0 | 0.00 | 0.00 | 0.00 | 56 | 1012.4 |
| 20260506225102 | 84 | 236 | 3.0 | 4.0 | 0.00 | 0.00 | 0.00 | 56 | 1012.3 |
| 20260506224901 | 84 | 287 | 1.0 | 6.0 | 0.00 | 0.00 | 0.00 | 56 | 1012.3 |
| 20260506224803 | 84 | 235 | 1.0 | 6.0 | 0.00 | 0.00 | 0.00 | 56 | 1012.2 |
| 20260506224701 | 84 | 207 | 1.0 | 6.0 | 0.00 | 0.00 | 0.00 | 56 | 1012.2 |
| 20260506224603 | 84 | 252 | 3.0 | 6.0 | 0.00 | 0.00 | 0.00 | 56 | 1012.3 |
| 20260506224505 | 84 | 247 | 2.0 | 6.0 | 0.00 | 0.00 | 0.00 | 56 | 1012.2 |
| 20260506224401 | 84 | 239 | 2.0 | 6.0 | 0.00 | 0.00 | 0.00 | 56 | 1012.1 |
| 20260506224303 | 84 | 236 | 0.0 | 6.0 | 0.00 | 0.00 | 0.00 | 56 | 1012.1 |
| 20260506224202 | 84 | 221 | 0.0 | 6.0 | 0.00 | 0.00 | 0.00 | 55 | 1012.0 |
| 20260506224101 | 84 | 172 | 0.0 | 6.0 | 0.00 | 0.00 | 0.00 | 56 | 1012.0 |
| 20260506224006 | 84 | 253 | 0.0 | 4.0 | 0.00 | 0.00 | 0.00 | 55 | 1012.0 |
| 20260506223901 | 84 | 188 | 0.0 | 4.0 | 0.00 | 0.00 | 0.00 | 55 | 1012.0 |
| 20260506223802 | 84 | 202 | 3.0 | 4.0 | 0.00 | 0.00 | 0.00 | 55 | 1012.1 |
| 20260506223602 | 84 | 252 | 2.0 | 3.0 | 0.00 | 0.00 | 0.00 | 55 | 1012.2 |
| 20260506223505 | 84 | 260 | 2.0 | 3.0 | 0.00 | 0.00 | 0.00 | 55 | 1012.2 |
| 20260506223401 | 84 | 251 | 3.0 | 3.0 | 0.00 | 0.00 | 0.00 | 55 | 1012.2 |
| 20260506223301 | 84 | 257 | 2.0 | 3.0 | 0.00 | 0.00 | 0.00 | 55 | 1012.2 |
| 20260506223201 | 84 | 300 | 2.0 | 3.0 | 0.00 | 0.00 | 0.00 | 55 | 1012.2 |
| 20260506223102 | 84 | 309 | 0.0 | 4.0 | 0.00 | 0.00 | 0.00 | 55 | 1012.2 |
| 20260506223006 | 84 | 226 | 1.0 | 4.0 | 0.00 | 0.00 | 0.00 | 55 | 1012.2 |
| 20260506222802 | 84 | 289 | 0.0 | 4.0 | 0.00 | 0.00 | 0.00 | 54 | 1012.3 |
| 20260506222703 | 84 | 247 | 2.0 | 4.0 | 0.00 | 0.00 | 0.00 | 55 | 1012.4 |
| 20260506222602 | 84 | 263 | 2.0 | 4.0 | 0.00 | 0.00 | 0.00 | 54 | 1012.4 |
| 20260506222506 | 84 | 245 | 0.0 | 4.0 | 0.00 | 0.00 | 0.00 | 54 | 1012.4 |
| 20260506222401 | 84 | 293 | 1.0 | 5.0 | 0.00 | 0.00 | 0.00 | 54 | 1012.4 |
| 20260506222203 | 84 | 1 | 3.0 | 5.0 | 0.00 | 0.00 | 0.00 | 54 | 1012.5 |
| 20260506222101 | 84 | 298 | 1.0 | 5.0 | 0.00 | 0.00 | 0.00 | 53 | 1012.4 |
| 20260506222007 | 84 | 287 | 0.0 | 5.0 | 0.00 | 0.00 | 0.00 | 54 | 1012.4 |
| 20260506221902 | 84 | 273 | 0.0 | 5.0 | 0.00 | 0.00 | 0.00 | 53 | 1012.3 |
| 20260506221801 | 84 | 333 | 0.0 | 5.0 | 0.00 | 0.00 | 0.00 | 54 | 1012.2 |
| 20260506221602 | 84 | 333 | 4.0 | 5.0 | 0.00 | 0.00 | 0.00 | 53 | 1012.3 |
| 20260506221505 | 84 | 264 | 2.0 | 4.0 | 0.00 | 0.00 | 0.00 | 54 | 1012.3 |
| 20260506221402 | 84 | 286 | 3.0 | 5.0 | 0.00 | 0.00 | 0.00 | 53 | 1012.1 |
| 20260506221302 | 84 | 298 | 2.0 | 5.0 | 0.00 | 0.00 | 0.00 | 53 | 1012.1 |
| 20260506221201 | 84 | 240 | 3.0 | 5.0 | 0.00 | 0.00 | 0.00 | 53 | 1012.1 |
| 20260506221102 | 85 | 248 | 2.0 | 5.0 | 0.00 | 0.00 | 0.00 | 53 | 1012.0 |
| 20260506221006 | 85 | 281 | 2.0 | 5.0 | 0.00 | 0.00 | 0.00 | 53 | 1012.0 |
| 20260506220901 | 84 | 266 | 0.0 | 5.0 | 0.00 | 0.00 | 0.00 | 52 | 1012.0 |
| 20260506220802 | 84 | 319 | 0.0 | 5.0 | 0.00 | 0.00 | 0.00 | 52 | 1012.1 |
| 20260506220701 | 84 | 228 | 3.0 | 5.0 | 0.00 | 0.00 | 0.00 | 52 | 1012.0 |
| 20260506220505 | 84 | 248 | 1.0 | 5.0 | 0.00 | 0.00 | 0.00 | 53 | 1012.1 |
| 20260506220401 | 85 | 303 | 3.0 | 5.0 | 0.00 | 0.00 | 0.00 | 53 | 1012.0 |
| 20260506220007 | 84 | 236 | 2.0 | 5.0 | 0.00 | 0.00 | 0.00 | 53 | 1012.1 |
| 20260506215903 | 84 | 253 | 2.0 | 5.0 | 0.00 | 0.00 | 0.00 | 52 | 1012.2 |
| 20260506215803 | 84 | 177 | 2.0 | 4.0 | 0.00 | 0.00 | 0.00 | 52 | 1012.2 |
| 20260506215703 | 84 | 25 | 4.0 | 4.0 | 0.00 | 0.00 | 0.00 | 52 | 1012.2 |
| 20260506215602 | 84 | 238 | 0.0 | 4.0 | 0.00 | 0.00 | 0.00 | 52 | 1012.2 |
| 20260506215507 | 84 | 204 | 2.0 | 4.0 | 0.00 | 0.00 | 0.00 | 53 | 1012.1 |
| 20260506215404 | 84 | 256 | 3.0 | 4.0 | 0.00 | 0.00 | 0.00 | 52 | 1012.1 |
| 20260506215306 | 84 | 249 | 0.0 | 4.0 | 0.00 | 0.00 | 0.00 | 53 | 1012.1 |
| 20260506215202 | 84 | 284 | 2.0 | 4.0 | 0.00 | 0.00 | 0.00 | 53 | 1012.1 |
| 20260506215103 | 84 | 221 | 2.0 | 4.0 | 0.00 | 0.00 | 0.00 | 53 | 1012.2 |
| 20260506215006 | 84 | 269 | 1.0 | 4.0 | 0.00 | 0.00 | 0.00 | 52 | 1012.2 |
| 20260506214803 | 85 | 268 | 3.0 | 4.0 | 0.00 | 0.00 | 0.00 | 52 | 1012.2 |
| 20260506214702 | 85 | 243 | 0.0 | 3.0 | 0.00 | 0.00 | 0.00 | 52 | 1012.2 |
| 20260506214603 | 85 | 281 | 0.0 | 3.0 | 0.00 | 0.00 | 0.00 | 52 | 1012.2 |
| 20260506214506 | 85 | 272 | 1.0 | 3.0 | 0.00 | 0.00 | 0.00 | 52 | 1012.3 |
| 20260506214403 | 85 | 98 | 2.0 | 4.0 | 0.00 | 0.00 | 0.00 | 52 | 1012.3 |
| 20260506214302 | 85 | 307 | 3.0 | 4.0 | 0.00 | 0.00 | 0.00 | 51 | 1012.3 |
| 20260506214103 | 85 | 203 | 2.0 | 6.0 | 0.00 | 0.00 | 0.00 | 51 | 1012.5 |
| 20260506213903 | 85 | 314 | 2.0 | 6.0 | 0.00 | 0.00 | 0.00 | 51 | 1012.5 |
| 20260506213802 | 85 | 357 | 2.0 | 6.0 | 0.00 | 0.00 | 0.00 | 52 | 1012.6 |
| 20260506213703 | 85 | 124 | 0.0 | 6.0 | 0.00 | 0.00 | 0.00 | 52 | 1012.6 |
| 20260506213603 | 85 | 317 | 1.0 | 6.0 | 0.00 | 0.00 | 0.00 | 51 | 1012.7 |
| 20260506213402 | 86 | 237 | 1.0 | 6.0 | 0.00 | 0.00 | 0.00 | 51 | 1012.7 |
| 20260506213303 | 86 | 288 | 0.0 | 6.0 | 0.00 | 0.00 | 0.00 | 50 | 1012.7 |
| 20260506213203 | 86 | 15 | 4.0 | 5.0 | 0.00 | 0.00 | 0.00 | 50 | 1012.8 |
| 20260506213101 | 86 | 24 | 2.0 | 5.0 | 0.00 | 0.00 | 0.00 | 50 | 1012.8 |
| 20260506213006 | 86 | 349 | 0.0 | 7.0 | 0.00 | 0.00 | 0.00 | 50 | 1012.8 |
| 20260506212506 | 87 | 38 | 0.0 | 7.0 | 0.00 | 0.00 | 0.00 | 50 | 1012.7 |
| 20260506212402 | 86 | 1 | 0.0 | 7.0 | 0.00 | 0.00 | 0.00 | 50 | 1012.6 |
| 20260506212306 | 86 | 345 | 3.0 | 7.0 | 0.00 | 0.00 | 0.00 | 50 | 1012.6 |
| 20260506212202 | 86 | 1 | 2.0 | 9.0 | 0.00 | 0.00 | 0.00 | 50 | 1012.5 |
| 20260506212103 | 86 | 162 | 2.0 | 9.0 | 0.00 | 0.00 | 0.00 | 50 | 1012.5 |
| 20260506211901 | 86 | 118 | 0.0 | 9.0 | 0.00 | 0.00 | 0.00 | 51 | 1012.6 |
| 20260506211702 | 86 | 333 | 2.0 | 9.0 | 0.00 | 0.00 | 0.00 | 50 | 1012.7 |
| 20260506211602 | 86 | 48 | 2.0 | 9.0 | 0.00 | 0.00 | 0.00 | 49 | 1012.7 |
| 20260506211506 | 86 | 34 | 3.0 | 9.0 | 0.00 | 0.00 | 0.00 | 49 | 1012.7 |
| 20260506211402 | 87 | 88 | 7.0 | 9.0 | 0.00 | 0.00 | 0.00 | 49 | 1012.7 |
| 20260506211302 | 87 | 50 | 2.0 | 9.0 | 0.00 | 0.00 | 0.00 | 50 | 1012.8 |
| 20260506211103 | 87 | 255 | 2.0 | 6.0 | 0.00 | 0.00 | 0.00 | 50 | 1012.7 |
| 20260506211006 | 87 | 308 | 1.0 | 6.0 | 0.00 | 0.00 | 0.00 | 50 | 1012.7 |
| 20260506210902 | 87 | 3 | 2.0 | 6.0 | 0.00 | 0.00 | 0.00 | 50 | 1012.6 |
| 20260506210803 | 87 | 338 | 3.0 | 6.0 | 0.00 | 0.00 | 0.00 | 50 | 1012.7 |
| 20260506210703 | 87 | 313 | 2.0 | 5.0 | 0.00 | 0.00 | 0.00 | 50 | 1012.7 |
| 20260506210604 | 87 | 297 | 2.0 | 5.0 | 0.00 | 0.00 | 0.00 | 50 | 1012.8 |
| 20260506210303 | 87 | 104 | 0.0 | 5.0 | 0.00 | 0.00 | 0.00 | 50 | 1013.0 |
| 20260506210201 | 87 | 314 | 0.0 | 5.0 | 0.00 | 0.00 | 0.00 | 50 | 1013.0 |
| 20260506210006 | 87 | 309 | 0.0 | 5.0 | 0.00 | 0.00 | 0.00 | 50 | 1013.0 |
| 20260506205902 | 87 | 101 | 0.0 | 5.0 | 0.00 | 0.00 | 0.00 | 49 | 1013.1 |
| 20260506205601 | 87 | 15 | 1.0 | 5.0 | 0.00 | 0.00 | 0.00 | 50 | 1013.2 |
| 20260506205505 | 87 | 18 | 0.0 | 5.0 | 0.00 | 0.00 | 0.00 | 49 | 1013.2 |
| 20260506205401 | 87 | 128 | 3.0 | 5.0 | 0.00 | 0.00 | 0.00 | 48 | 1013.2 |
| 20260506205202 | 87 | 341 | 1.0 | 5.0 | 0.00 | 0.00 | 0.00 | 49 | 1013.1 |
| 20260506205102 | 87 | 111 | 3.0 | 5.0 | 0.00 | 0.00 | 0.00 | 50 | 1013.2 |
| 20260506205006 | 87 | 8 | 0.0 | 5.0 | 0.00 | 0.00 | 0.00 | 50 | 1013.2 |
| 20260506204902 | 87 | 343 | 3.0 | 5.0 | 0.00 | 0.00 | 0.00 | 50 | 1013.2 |
| 20260506204801 | 87 | 92 | 1.0 | 5.0 | 0.00 | 0.00 | 0.00 | 50 | 1013.2 |
| 20260506204702 | 87 | 351 | 1.0 | 5.0 | 0.00 | 0.00 | 0.00 | 52 | 1013.2 |
| 20260506204602 | 87 | 84 | 1.0 | 5.0 | 0.00 | 0.00 | 0.00 | 51 | 1013.2 |
| 20260506204506 | 87 | 357 | 2.0 | 5.0 | 0.00 | 0.00 | 0.00 | 50 | 1013.2 |
| 20260506204302 | 87 | 296 | 1.0 | 5.0 | 0.00 | 0.00 | 0.00 | 50 | 1013.2 |
| 20260506204202 | 87 | 11 | 4.0 | 5.0 | 0.00 | 0.00 | 0.00 | 51 | 1013.2 |
| 20260506204101 | 87 | 351 | 2.0 | 5.0 | 0.00 | 0.00 | 0.00 | 51 | 1013.2 |
| 20260506204006 | 87 | 326 | 0.0 | 5.0 | 0.00 | 0.00 | 0.00 | 51 | 1013.2 |
| 20260506203901 | 87 | 345 | 2.0 | 6.0 | 0.00 | 0.00 | 0.00 | 51 | 1013.2 |
| 20260506203801 | 86 | 39 | 0.0 | 6.0 | 0.00 | 0.00 | 0.00 | 50 | 1013.3 |
| 20260506203702 | 87 | 237 | 0.0 | 6.0 | 0.00 | 0.00 | 0.00 | 51 | 1013.2 |
| 20260506203602 | 87 | 128 | 0.0 | 6.0 | 0.00 | 0.00 | 0.00 | 50 | 1013.2 |
| 20260506203506 | 87 | 293 | 0.0 | 6.0 | 0.00 | 0.00 | 0.00 | 51 | 1013.2 |
| 20260506203402 | 87 | 303 | 0.0 | 6.0 | 0.00 | 0.00 | 0.00 | 50 | 1013.1 |
| 20260506203202 | 87 | 355 | 3.0 | 6.0 | 0.00 | 0.00 | 0.00 | 50 | 1013.1 |
| 20260506203101 | 87 | 231 | 2.0 | 6.0 | 0.00 | 0.00 | 0.00 | 50 | 1013.1 |
| 20260506203007 | 87 | 53 | 3.0 | 5.0 | 0.00 | 0.00 | 0.00 | 50 | 1013.2 |
| 20260506202902 | 87 | 125 | 3.0 | 6.0 | 0.00 | 0.00 | 0.00 | 50 | 1013.3 |
| 20260506202801 | 87 | 327 | 0.0 | 6.0 | 0.00 | 0.00 | 0.00 | 50 | 1013.3 |
| 20260506202702 | 87 | 151 | 0.0 | 6.0 | 0.00 | 0.00 | 0.00 | 50 | 1013.3 |
| 20260506202602 | 87 | 49 | 2.0 | 6.0 | 0.00 | 0.00 | 0.00 | 50 | 1013.3 |
| 20260506202506 | 88 | 85 | 3.0 | 6.0 | 0.00 | 0.00 | 0.00 | 50 | 1013.2 |
| 20260506202402 | 87 | 110 | 3.0 | 6.0 | 0.00 | 0.00 | 0.00 | 50 | 1013.3 |
| 20260506202203 | 87 | 82 | 0.0 | 6.0 | 0.00 | 0.00 | 0.00 | 49 | 1013.4 |
| 20260506202102 | 88 | 33 | 2.0 | 6.0 | 0.00 | 0.00 | 0.00 | 49 | 1013.4 |
| 20260506202005 | 88 | 118 | 5.0 | 5.0 | 0.00 | 0.00 | 0.00 | 50 | 1013.4 |
| 20260506201701 | 88 | 77 | 2.0 | 5.0 | 0.00 | 0.00 | 0.00 | 50 | 1013.6 |
| 20260506201602 | 88 | 34 | 1.0 | 5.0 | 0.00 | 0.00 | 0.00 | 50 | 1013.6 |
| 20260506201506 | 88 | 122 | 3.0 | 5.0 | 0.00 | 0.00 | 0.00 | 51 | 1013.6 |
| 20260506201401 | 87 | 10 | 3.0 | 5.0 | 0.00 | 0.00 | 0.00 | 49 | 1013.6 |
| 20260506201301 | 87 | 61 | 2.0 | 5.0 | 0.00 | 0.00 | 0.00 | 50 | 1013.6 |
| 20260506201201 | 88 | 59 | 2.0 | 5.0 | 0.00 | 0.00 | 0.00 | 50 | 1013.6 |
| 20260506201101 | 88 | 334 | 5.0 | 5.0 | 0.00 | 0.00 | 0.00 | 52 | 1013.7 |
| 20260506201005 | 88 | 325 | 0.0 | 5.0 | 0.00 | 0.00 | 0.00 | 51 | 1013.7 |
| 20260506200902 | 88 | 41 | 0.0 | 5.0 | 0.00 | 0.00 | 0.00 | 50 | 1013.6 |
| 20260506200701 | 88 | 149 | 0.0 | 5.0 | 0.00 | 0.00 | 0.00 | 50 | 1013.7 |
| 20260506200601 | 88 | 219 | 0.0 | 5.0 | 0.00 | 0.00 | 0.00 | 52 | 1013.8 |
| 20260506200505 | 87 | 302 | 0.0 | 5.0 | 0.00 | 0.00 | 0.00 | 52 | 1013.8 |
| 20260506200401 | 87 | 350 | 3.0 | 5.0 | 0.00 | 0.00 | 0.00 | 52 | 1013.8 |
| 20260506200301 | 87 | 308 | 0.0 | 4.0 | 0.00 | 0.00 | 0.00 | 52 | 1013.8 |
| 20260506200201 | 87 | 316 | 3.0 | 4.0 | 0.00 | 0.00 | 0.00 | 52 | 1013.8 |
| 20260506200006 | 86 | 148 | 3.0 | 4.0 | 0.00 | 0.00 | 0.00 | 52 | 1013.9 |
| 20260506195802 | 86 | 287 | 0.0 | 4.0 | 0.00 | 0.00 | 0.00 | 52 | 1014.0 |
| 20260506195702 | 86 | 311 | 0.0 | 4.0 | 0.00 | 0.00 | 0.00 | 52 | 1014.0 |
| 20260506195601 | 86 | 338 | 1.0 | 5.0 | 0.00 | 0.00 | 0.00 | 52 | 1014.0 |
| 20260506195506 | 86 | 235 | 0.0 | 5.0 | 0.00 | 0.00 | 0.00 | 52 | 1014.0 |
| 20260506195301 | 86 | 24 | 0.0 | 5.0 | 0.00 | 0.00 | 0.00 | 53 | 1014.2 |
| 20260506195101 | 86 | 338 | 2.0 | 5.0 | 0.00 | 0.00 | 0.00 | 52 | 1014.1 |
| 20260506194902 | 86 | 37 | 1.0 | 5.0 | 0.00 | 0.00 | 0.00 | 53 | 1014.1 |
| 20260506194802 | 86 | 15 | 3.0 | 5.0 | 0.00 | 0.00 | 0.00 | 52 | 1014.0 |
| 20260506194505 | 87 | 299 | 2.0 | 6.0 | 0.00 | 0.00 | 0.00 | 51 | 1014.2 |
| 20260506194402 | 87 | 348 | 3.0 | 6.0 | 0.00 | 0.00 | 0.00 | 52 | 1014.1 |
| 20260506194302 | 87 | 328 | 0.0 | 6.0 | 0.00 | 0.00 | 0.00 | 51 | 1014.1 |
| 20260506194202 | 87 | 353 | 4.0 | 6.0 | 0.00 | 0.00 | 0.00 | 50 | 1014.2 |
| 20260506194102 | 87 | 321 | 4.0 | 6.0 | 0.00 | 0.00 | 0.00 | 51 | 1014.2 |
| 20260506193901 | 88 | 3 | 3.0 | 6.0 | 0.00 | 0.00 | 0.00 | 50 | 1014.3 |
| 20260506193801 | 88 | 8 | 4.0 | 6.0 | 0.00 | 0.00 | 0.00 | 49 | 1014.4 |
| 20260506193701 | 89 | 338 | 4.0 | 6.0 | 0.00 | 0.00 | 0.00 | 49 | 1014.3 |
| 20260506193602 | 89 | 349 | 1.0 | 6.0 | 0.00 | 0.00 | 0.00 | 50 | 1014.3 |
| 20260506193505 | 89 | 121 | 3.0 | 6.0 | 0.00 | 0.00 | 0.00 | 50 | 1014.4 |
| 20260506193301 | 89 | 320 | 3.0 | 6.0 | 0.00 | 0.00 | 0.00 | 50 | 1014.5 |
| 20260506193201 | 89 | 322 | 3.0 | 5.0 | 0.00 | 0.00 | 0.00 | 50 | 1014.5 |
| 20260506193101 | 89 | 355 | 5.0 | 5.0 | 0.00 | 0.00 | 0.00 | 50 | 1014.6 |
| 20260506193006 | 88 | 33 | 3.0 | 5.0 | 0.00 | 0.00 | 0.00 | 50 | 1014.6 |
| 20260506192901 | 88 | 329 | 2.0 | 5.0 | 0.00 | 0.00 | 0.00 | 51 | 1014.6 |
| 20260506192507 | 87 | 349 | 1.0 | 6.0 | 0.00 | 0.00 | 0.00 | 52 | 1014.6 |
| 20260506192402 | 87 | 340 | 4.0 | 6.0 | 0.00 | 0.00 | 0.00 | 53 | 1014.6 |
| 20260506192305 | 87 | 108 | 2.0 | 6.0 | 0.00 | 0.00 | 0.00 | 54 | 1014.7 |
| 20260506192006 | 86 | 341 | 2.0 | 6.0 | 0.00 | 0.00 | 0.00 | 54 | 1014.7 |
| 20260506191902 | 85 | 335 | 3.0 | 6.0 | 0.00 | 0.00 | 0.00 | 55 | 1014.7 |
| 20260506191801 | 85 | 320 | 3.0 | 6.0 | 0.00 | 0.00 | 0.00 | 54 | 1014.6 |
| 20260506191601 | 85 | 332 | 4.0 | 6.0 | 0.00 | 0.00 | 0.00 | 55 | 1014.8 |
| 20260506191506 | 85 | 317 | 2.0 | 6.0 | 0.00 | 0.00 | 0.00 | 55 | 1014.8 |
| 20260506191401 | 85 | 329 | 3.0 | 6.0 | 0.00 | 0.00 | 0.00 | 54 | 1014.8 |
| 20260506191301 | 85 | 331 | 5.0 | 6.0 | 0.00 | 0.00 | 0.00 | 53 | 1014.9 |
| 20260506191202 | 86 | 330 | 3.0 | 6.0 | 0.00 | 0.00 | 0.00 | 53 | 1014.9 |
| 20260506191006 | 86 | 17 | 4.0 | 6.0 | 0.00 | 0.00 | 0.00 | 54 | 1014.8 |
| 20260506190901 | 86 | 88 | 0.0 | 6.0 | 0.00 | 0.00 | 0.00 | 53 | 1014.8 |
| 20260506190601 | 86 | 351 | 0.0 | 5.0 | 0.00 | 0.00 | 0.00 | 53 | 1015.0 |
| 20260506190401 | 86 | 280 | 3.0 | 5.0 | 0.00 | 0.00 | 0.00 | 53 | 1015.0 |
| 20260506190201 | 86 | 74 | 3.0 | 5.0 | 0.00 | 0.00 | 0.00 | 53 | 1015.0 |
| 20260506190007 | 86 | 354 | 2.0 | 5.0 | 0.00 | 0.00 | 0.00 | 53 | 1015.0 |
| 20260506185801 | 86 | 334 | 3.0 | 6.0 | 0.00 | 0.00 | 0.00 | 52 | 1015.0 |
| 20260506185701 | 86 | 29 | 3.0 | 6.0 | 0.00 | 0.00 | 0.00 | 51 | 1015.0 |
| 20260506185601 | 86 | 23 | 2.0 | 6.0 | 0.00 | 0.00 | 0.00 | 52 | 1015.0 |
| 20260506185505 | 86 | 182 | 1.0 | 6.0 | 0.00 | 0.00 | 0.00 | 53 | 1015.0 |
| 20260506185402 | 86 | 13 | 1.0 | 6.0 | 0.00 | 0.00 | 0.00 | 52 | 1015.1 |
| 20260506185301 | 87 | 280 | 2.0 | 6.0 | 0.00 | 0.00 | 0.00 | 54 | 1015.1 |
| 20260506185202 | 86 | 310 | 2.0 | 6.0 | 0.00 | 0.00 | 0.00 | 55 | 1015.0 |
| 20260506185005 | 86 | 322 | 3.0 | 6.0 | 0.00 | 0.00 | 0.00 | 53 | 1015.2 |
| 20260506184901 | 86 | 298 | 0.0 | 6.0 | 0.00 | 0.00 | 0.00 | 53 | 1015.2 |
| 20260506184801 | 87 | 308 | 2.0 | 6.0 | 0.00 | 0.00 | 0.00 | 53 | 1015.1 |
| 20260506184702 | 87 | 356 | 0.0 | 6.0 | 0.00 | 0.00 | 0.00 | 52 | 1015.2 |
| 20260506184505 | 88 | 336 | 4.0 | 6.0 | 0.00 | 0.00 | 0.00 | 51 | 1015.0 |
| 20260506184401 | 88 | 312 | 0.0 | 6.0 | 0.00 | 0.00 | 0.00 | 52 | 1015.2 |
| 20260506184302 | 88 | 131 | 0.0 | 6.0 | 0.00 | 0.00 | 0.00 | 52 | 1015.3 |
| 20260506184102 | 87 | 22 | 3.0 | 6.0 | 0.00 | 0.00 | 0.00 | 53 | 1015.1 |
| 20260506184007 | 86 | 15 | 4.0 | 5.0 | 0.00 | 0.00 | 0.00 | 55 | 1015.1 |
| 20260506183902 | 86 | 348 | 3.0 | 5.0 | 0.00 | 0.00 | 0.00 | 53 | 1015.2 |
| 20260506183801 | 86 | 329 | 2.0 | 5.0 | 0.00 | 0.00 | 0.00 | 52 | 1015.2 |
| 20260506183701 | 86 | 319 | 5.0 | 5.0 | 0.00 | 0.00 | 0.00 | 54 | 1015.2 |
| 20260506183601 | 86 | 318 | 3.0 | 5.0 | 0.00 | 0.00 | 0.00 | 55 | 1015.2 |
| 20260506183505 | 86 | 352 | 4.0 | 5.0 | 0.00 | 0.00 | 0.00 | 53 | 1015.3 |
| 20260506183402 | 86 | 321 | 0.0 | 5.0 | 0.00 | 0.00 | 0.00 | 55 | 1015.3 |
| 20260506183302 | 85 | 287 | 2.0 | 5.0 | 0.00 | 0.00 | 0.00 | 55 | 1015.2 |
| 20260506183102 | 86 | 1 | 3.0 | 5.0 | 0.00 | 0.00 | 0.00 | 55 | 1015.3 |
| 20260506183006 | 85 | 247 | 0.0 | 5.0 | 0.00 | 0.00 | 0.00 | 55 | 1015.3 |
| 20260506182901 | 85 | 336 | 0.0 | 5.0 | 0.00 | 0.00 | 0.00 | 55 | 1015.3 |
| 20260506182801 | 85 | 5 | 1.0 | 5.0 | 0.00 | 0.00 | 0.00 | 55 | 1015.3 |
| 20260506182701 | 85 | 354 | 3.0 | 4.0 | 0.00 | 0.00 | 0.00 | 55 | 1015.4 |
| 20260506182602 | 84 | 324 | 3.0 | 4.0 | 0.00 | 0.00 | 0.00 | 57 | 1015.3 |
| 20260506182505 | 83 | 320 | 0.0 | 4.0 | 0.00 | 0.00 | 0.00 | 57 | 1015.4 |
| 20260506182402 | 83 | 174 | 0.0 | 4.0 | 0.00 | 0.00 | 0.00 | 56 | 1015.3 |
| 20260506182301 | 83 | 135 | 1.0 | 4.0 | 0.00 | 0.00 | 0.00 | 56 | 1015.4 |
| 20260506182202 | 83 | 356 | 2.0 | 5.0 | 0.00 | 0.00 | 0.00 | 55 | 1015.4 |
| 20260506182101 | 84 | 315 | 3.0 | 5.0 | 0.00 | 0.00 | 0.00 | 55 | 1015.4 |
| 20260506181901 | 84 | 356 | 0.0 | 5.0 | 0.00 | 0.00 | 0.00 | 54 | 1015.3 |
| 20260506181802 | 85 | 103 | 0.0 | 5.0 | 0.00 | 0.00 | 0.00 | 55 | 1015.3 |
| 20260506181701 | 85 | 41 | 0.0 | 5.0 | 0.00 | 0.00 | 0.00 | 56 | 1015.4 |
| 20260506181506 | 84 | 20 | 0.0 | 5.0 | 0.00 | 0.00 | 0.00 | 55 | 1015.3 |
| 20260506181403 | 84 | 120 | 0.0 | 6.0 | 0.00 | 0.00 | 0.00 | 54 | 1015.4 |
| 20260506181301 | 85 | 328 | 3.0 | 6.0 | 0.00 | 0.00 | 0.00 | 53 | 1015.4 |
| 20260506181202 | 85 | 332 | 1.0 | 6.0 | 0.00 | 0.00 | 0.00 | 53 | 1015.4 |
| 20260506181100 | 85 | 302 | 1.0 | 6.0 | 0.00 | 0.00 | 0.00 | 54 | 1015.4 |
| 20260506181006 | 85 | 303 | 2.0 | 6.0 | 0.00 | 0.00 | 0.00 | 54 | 1015.4 |
| 20260506180901 | 85 | 4 | 4.0 | 8.0 | 0.00 | 0.00 | 0.00 | 54 | 1015.5 |
| 20260506180701 | 84 | 336 | 1.0 | 8.0 | 0.00 | 0.00 | 0.00 | 55 | 1015.5 |
| 20260506180601 | 84 | 328 | 3.0 | 8.0 | 0.00 | 0.00 | 0.00 | 55 | 1015.4 |
| 20260506180301 | 84 | 284 | 2.0 | 8.0 | 0.00 | 0.00 | 0.00 | 56 | 1015.5 |
| 20260506180007 | 85 | 303 | 5.0 | 8.0 | 0.00 | 0.00 | 0.00 | 53 | 1015.5 |
| 20260506175902 | 85 | 3 | 3.0 | 7.0 | 0.00 | 0.00 | 0.00 | 54 | 1015.5 |
| 20260506175802 | 85 | 327 | 4.0 | 7.0 | 0.00 | 0.00 | 0.00 | 53 | 1015.5 |
| 20260506175702 | 85 | 347 | 4.0 | 7.0 | 0.00 | 0.00 | 0.00 | 52 | 1015.5 |
| 20260506175506 | 86 | 320 | 3.0 | 7.0 | 0.00 | 0.00 | 0.00 | 55 | 1015.6 |
| 20260506175401 | 85 | 330 | 3.0 | 7.0 | 0.00 | 0.00 | 0.00 | 56 | 1015.6 |
| 20260506175301 | 85 | 347 | 2.0 | 7.0 | 0.00 | 0.00 | 0.00 | 55 | 1015.5 |
| 20260506175201 | 85 | 328 | 3.0 | 7.0 | 0.00 | 0.00 | 0.00 | 53 | 1015.5 |
| 20260506175100 | 85 | 350 | 3.0 | 7.0 | 0.00 | 0.00 | 0.00 | 54 | 1015.5 |
| 20260506175006 | 85 | 306 | 3.0 | 6.0 | 0.00 | 0.00 | 0.00 | 52 | 1015.5 |
| 20260506174701 | 84 | 347 | 2.0 | 5.0 | 0.00 | 0.00 | 0.00 | 54 | 1015.5 |
| 20260506174505 | 84 | 320 | 2.0 | 4.0 | 0.00 | 0.00 | 0.00 | 52 | 1015.6 |
| 20260506174401 | 85 | 4 | 3.0 | 6.0 | 0.00 | 0.00 | 0.00 | 51 | 1015.7 |
| 20260506174301 | 85 | 66 | 2.0 | 6.0 | 0.00 | 0.00 | 0.00 | 54 | 1015.6 |
| 20260506174201 | 85 | 343 | 2.0 | 8.0 | 0.00 | 0.00 | 0.00 | 54 | 1015.7 |
| 20260506174101 | 85 | 280 | 2.0 | 8.0 | 0.00 | 0.00 | 0.00 | 54 | 1015.6 |
| 20260506174006 | 84 | 265 | 0.0 | 8.0 | 0.00 | 0.00 | 0.00 | 56 | 1015.6 |
| 20260506173801 | 83 | 341 | 3.0 | 8.0 | 0.00 | 0.00 | 0.00 | 55 | 1015.7 |
| 20260506173702 | 83 | 23 | 3.0 | 8.0 | 0.00 | 0.00 | 0.00 | 55 | 1015.7 |
| 20260506173601 | 84 | 317 | 3.0 | 8.0 | 0.00 | 0.00 | 0.00 | 54 | 1015.8 |
| 20260506173505 | 84 | 341 | 4.0 | 8.0 | 0.00 | 0.00 | 0.00 | 53 | 1015.8 |
| 20260506173401 | 84 | 304 | 6.0 | 8.0 | 0.00 | 0.00 | 0.00 | 54 | 1015.8 |
| 20260506173300 | 84 | 315 | 3.0 | 6.0 | 0.00 | 0.00 | 0.00 | 54 | 1015.8 |
| 20260506173202 | 84 | 340 | 2.0 | 6.0 | 0.00 | 0.00 | 0.00 | 55 | 1015.8 |
| 20260506173101 | 84 | 315 | 3.0 | 6.0 | 0.00 | 0.00 | 0.00 | 55 | 1015.9 |
| 20260506173006 | 84 | 360 | 0.0 | 6.0 | 0.00 | 0.00 | 0.00 | 54 | 1015.9 |
| 20260506172901 | 84 | 342 | 3.0 | 6.0 | 0.00 | 0.00 | 0.00 | 56 | 1015.9 |
| 20260506172801 | 84 | 320 | 3.0 | 6.0 | 0.00 | 0.00 | 0.00 | 55 | 1015.8 |
| 20260506172701 | 83 | 328 | 4.0 | 6.0 | 0.00 | 0.00 | 0.00 | 55 | 1015.9 |
| 20260506172505 | 83 | 317 | 3.0 | 6.0 | 0.00 | 0.00 | 0.00 | 54 | 1016.0 |
| 20260506172401 | 83 | 345 | 4.0 | 6.0 | 0.00 | 0.00 | 0.00 | 55 | 1016.0 |
| 20260506172305 | 84 | 312 | 2.0 | 6.0 | 0.00 | 0.00 | 0.00 | 54 | 1015.9 |
| 20260506172202 | 84 | 318 | 4.0 | 6.0 | 0.00 | 0.00 | 0.00 | 54 | 1016.0 |
| 20260506172101 | 84 | 334 | 4.0 | 6.0 | 0.00 | 0.00 | 0.00 | 55 | 1016.0 |
| 20260506172006 | 84 | 345 | 0.0 | 6.0 | 0.00 | 0.00 | 0.00 | 54 | 1016.0 |
| 20260506171901 | 84 | 316 | 3.0 | 6.0 | 0.00 | 0.00 | 0.00 | 56 | 1016.1 |
| 20260506171801 | 84 | 355 | 2.0 | 6.0 | 0.00 | 0.00 | 0.00 | 55 | 1016.0 |
| 20260506171702 | 84 | 328 | 2.0 | 6.0 | 0.00 | 0.00 | 0.00 | 53 | 1016.1 |
| 20260506171601 | 84 | 345 | 3.0 | 6.0 | 0.00 | 0.00 | 0.00 | 53 | 1016.1 |
| 20260506171506 | 84 | 360 | 6.0 | 6.0 | 0.00 | 0.00 | 0.00 | 53 | 1016.1 |
| 20260506171301 | 83 | 358 | 4.0 | 5.0 | 0.00 | 0.00 | 0.00 | 54 | 1016.2 |
| 20260506171201 | 82 | 336 | 3.0 | 5.0 | 0.00 | 0.00 | 0.00 | 54 | 1016.2 |
| 20260506171101 | 82 | 13 | 1.0 | 5.0 | 0.00 | 0.00 | 0.00 | 55 | 1016.3 |
| 20260506171006 | 82 | 335 | 3.0 | 5.0 | 0.00 | 0.00 | 0.00 | 55 | 1016.2 |
| 20260506170901 | 82 | 316 | 4.0 | 5.0 | 0.00 | 0.00 | 0.00 | 54 | 1016.2 |
| 20260506170801 | 83 | 324 | 4.0 | 5.0 | 0.00 | 0.00 | 0.00 | 54 | 1016.3 |
| 20260506170601 | 83 | 329 | 2.0 | 5.0 | 0.00 | 0.00 | 0.00 | 52 | 1016.2 |
| 20260506170506 | 83 | 352 | 1.0 | 5.0 | 0.00 | 0.00 | 0.00 | 52 | 1016.2 |
| 20260506170401 | 83 | 114 | 4.0 | 5.0 | 0.00 | 0.00 | 0.00 | 55 | 1016.2 |
| 20260506170201 | 82 | 301 | 2.0 | 7.0 | 0.00 | 0.00 | 0.00 | 55 | 1016.3 |
| 20260506170006 | 82 | 26 | 3.0 | 7.0 | 0.00 | 0.00 | 0.00 | 55 | 1016.3 |
| 20260506165902 | 82 | 311 | 3.0 | 7.0 | 0.00 | 0.00 | 0.00 | 57 | 1016.3 |
| 20260506165803 | 82 | 308 | 2.0 | 7.0 | 0.00 | 0.00 | 0.00 | 56 | 1016.3 |
| 20260506165702 | 81 | 327 | 2.0 | 7.0 | 0.00 | 0.00 | 0.00 | 55 | 1016.4 |
| 20260506165602 | 82 | 18 | 5.0 | 7.0 | 0.00 | 0.00 | 0.00 | 56 | 1016.4 |
| 20260506165505 | 82 | 321 | 4.0 | 7.0 | 0.00 | 0.00 | 0.00 | 56 | 1016.5 |
| 20260506165402 | 82 | 1 | 5.0 | 7.0 | 0.00 | 0.00 | 0.00 | 56 | 1016.5 |
| 20260506165305 | 81 | 335 | 2.0 | 6.0 | 0.00 | 0.00 | 0.00 | 56 | 1016.5 |
| 20260506165202 | 81 | 280 | 3.0 | 6.0 | 0.00 | 0.00 | 0.00 | 56 | 1016.5 |
| 20260506165102 | 81 | 322 | 1.0 | 8.0 | 0.00 | 0.00 | 0.00 | 57 | 1016.5 |
| 20260506165006 | 81 | 321 | 4.0 | 8.0 | 0.00 | 0.00 | 0.00 | 56 | 1016.5 |
| 20260506164901 | 81 | 312 | 2.0 | 8.0 | 0.00 | 0.00 | 0.00 | 56 | 1016.5 |
| 20260506164802 | 81 | 314 | 4.0 | 8.0 | 0.00 | 0.00 | 0.00 | 56 | 1016.5 |
| 20260506164702 | 81 | 272 | 5.0 | 8.0 | 0.00 | 0.00 | 0.00 | 57 | 1016.5 |
| 20260506164603 | 81 | 321 | 2.0 | 8.0 | 0.00 | 0.00 | 0.00 | 56 | 1016.5 |
| 20260506164506 | 81 | 326 | 2.0 | 8.0 | 0.00 | 0.00 | 0.00 | 56 | 1016.5 |
| 20260506164403 | 81 | 308 | 4.0 | 8.0 | 0.00 | 0.00 | 0.00 | 55 | 1016.6 |
| 20260506164303 | 82 | 302 | 4.0 | 8.0 | 0.00 | 0.00 | 0.00 | 56 | 1016.5 |
| 20260506164201 | 82 | 303 | 3.0 | 6.0 | 0.00 | 0.00 | 0.00 | 57 | 1016.6 |
| 20260506164102 | 81 | 319 | 2.0 | 6.0 | 0.00 | 0.00 | 0.00 | 57 | 1016.4 |
| 20260506164006 | 81 | 352 | 4.0 | 6.0 | 0.00 | 0.00 | 0.00 | 59 | 1016.4 |
| 20260506163902 | 81 | 319 | 1.0 | 6.0 | 0.00 | 0.00 | 0.00 | 58 | 1016.6 |
| 20260506163802 | 81 | 335 | 2.0 | 6.0 | 0.00 | 0.00 | 0.00 | 58 | 1016.5 |
| 20260506163703 | 81 | 326 | 3.0 | 6.0 | 0.00 | 0.00 | 0.00 | 58 | 1016.5 |
| 20260506163602 | 81 | 324 | 2.0 | 6.0 | 0.00 | 0.00 | 0.00 | 57 | 1016.5 |
| 20260506163505 | 82 | 309 | 4.0 | 6.0 | 0.00 | 0.00 | 0.00 | 57 | 1016.5 |
| 20260506163302 | 82 | 282 | 3.0 | 5.0 | 0.00 | 0.00 | 0.00 | 58 | 1016.5 |
| 20260506163201 | 82 | 310 | 0.0 | 5.0 | 0.00 | 0.00 | 0.00 | 57 | 1016.5 |
| 20260506163102 | 82 | 340 | 0.0 | 5.0 | 0.00 | 0.00 | 0.00 | 56 | 1016.6 |
| 20260506163006 | 82 | 233 | 2.0 | 5.0 | 0.00 | 0.00 | 0.00 | 58 | 1016.6 |
| 20260506162903 | 82 | 345 | 1.0 | 5.0 | 0.00 | 0.00 | 0.00 | 56 | 1016.5 |
| 20260506162803 | 82 | 357 | 1.0 | 5.0 | 0.00 | 0.00 | 0.00 | 57 | 1016.6 |
| 20260506162602 | 82 | 133 | 2.0 | 5.0 | 0.00 | 0.00 | 0.00 | 56 | 1016.7 |
| 20260506162506 | 82 | 346 | 2.0 | 5.0 | 0.00 | 0.00 | 0.00 | 58 | 1016.7 |
| 20260506162403 | 82 | 277 | 0.0 | 5.0 | 0.00 | 0.00 | 0.00 | 58 | 1016.6 |
| 20260506162306 | 82 | 252 | 2.0 | 5.0 | 0.00 | 0.00 | 0.00 | 58 | 1016.7 |
| 20260506162202 | 81 | 277 | 0.0 | 5.0 | 0.00 | 0.00 | 0.00 | 60 | 1016.7 |
| 20260506162103 | 81 | 325 | 3.0 | 5.0 | 0.00 | 0.00 | 0.00 | 59 | 1016.8 |
| 20260506162006 | 81 | 272 | 4.0 | 5.0 | 0.00 | 0.00 | 0.00 | 60 | 1016.8 |
| 20260506161901 | 81 | 312 | 4.0 | 6.0 | 0.00 | 0.00 | 0.00 | 60 | 1016.7 |
| 20260506161801 | 81 | 313 | 4.0 | 6.0 | 0.00 | 0.00 | 0.00 | 61 | 1016.7 |
| 20260506161702 | 80 | 316 | 3.0 | 6.0 | 0.00 | 0.00 | 0.00 | 61 | 1016.7 |
| 20260506161602 | 80 | 317 | 4.0 | 6.0 | 0.00 | 0.00 | 0.00 | 61 | 1016.7 |
| 20260506161505 | 80 | 314 | 3.0 | 6.0 | 0.00 | 0.00 | 0.00 | 60 | 1016.7 |
| 20260506161403 | 80 | 304 | 2.0 | 6.0 | 0.00 | 0.00 | 0.00 | 61 | 1016.7 |
| 20260506161303 | 80 | 287 | 2.0 | 6.0 | 0.00 | 0.00 | 0.00 | 61 | 1016.7 |
| 20260506161202 | 80 | 269 | 1.0 | 6.0 | 0.00 | 0.00 | 0.00 | 62 | 1016.7 |
| 20260506161103 | 80 | 307 | 3.0 | 6.0 | 0.00 | 0.00 | 0.00 | 61 | 1016.7 |
| 20260506160903 | 80 | 303 | 3.0 | 6.0 | 0.00 | 0.00 | 0.00 | 62 | 1016.7 |
| 20260506160802 | 80 | 345 | 2.0 | 6.0 | 0.00 | 0.00 | 0.00 | 60 | 1016.7 |
| 20260506160701 | 80 | 339 | 4.0 | 6.0 | 0.00 | 0.00 | 0.00 | 60 | 1016.8 |
| 20260506160602 | 80 | 312 | 4.0 | 6.0 | 0.00 | 0.00 | 0.00 | 62 | 1016.8 |
| 20260506160506 | 80 | 287 | 3.0 | 6.0 | 0.00 | 0.00 | 0.00 | 61 | 1016.8 |
| 20260506160402 | 80 | 301 | 1.0 | 6.0 | 0.00 | 0.00 | 0.00 | 61 | 1016.8 |
| 20260506160303 | 80 | 317 | 3.0 | 6.0 | 0.00 | 0.00 | 0.00 | 61 | 1016.7 |
| 20260506160201 | 80 | 303 | 3.0 | 5.0 | 0.00 | 0.00 | 0.00 | 62 | 1016.8 |
| 20260506160008 | 79 | 285 | 3.0 | 5.0 | 0.00 | 0.00 | 0.00 | 63 | 1016.8 |
| 20260506155901 | 79 | 338 | 3.0 | 5.0 | 0.00 | 0.00 | 0.00 | 63 | 1016.9 |
| 20260506155801 | 79 | 309 | 3.0 | 5.0 | 0.00 | 0.00 | 0.00 | 63 | 1016.8 |
| 20260506155506 | 79 | 326 | 3.0 | 5.0 | 0.00 | 0.00 | 0.00 | 62 | 1016.9 |
| 20260506155401 | 79 | 313 | 5.0 | 5.0 | 0.00 | 0.00 | 0.00 | 63 | 1016.9 |
| 20260506155305 | 79 | 312 | 3.0 | 5.0 | 0.00 | 0.00 | 0.00 | 63 | 1016.9 |
| 20260506155101 | 78 | 282 | 2.0 | 6.0 | 0.00 | 0.00 | 0.00 | 63 | 1016.8 |
| 20260506155006 | 78 | 299 | 4.0 | 6.0 | 0.00 | 0.00 | 0.00 | 64 | 1016.8 |
| 20260506154902 | 78 | 301 | 4.0 | 6.0 | 0.00 | 0.00 | 0.00 | 64 | 1016.8 |
| 20260506154802 | 78 | 310 | 3.0 | 6.0 | 0.00 | 0.00 | 0.00 | 64 | 1016.8 |
| 20260506154702 | 78 | 309 | 3.0 | 6.0 | 0.00 | 0.00 | 0.00 | 65 | 1016.8 |
| 20260506154505 | 78 | 324 | 0.0 | 6.0 | 0.00 | 0.00 | 0.00 | 65 | 1016.8 |
| 20260506154301 | 78 | 293 | 4.0 | 6.0 | 0.00 | 0.00 | 0.00 | 65 | 1016.7 |
| 20260506154101 | 78 | 308 | 3.0 | 6.0 | 0.00 | 0.00 | 0.00 | 66 | 1016.7 |
| 20260506154006 | 78 | 288 | 2.0 | 6.0 | 0.00 | 0.00 | 0.00 | 65 | 1016.7 |
| 20260506153901 | 78 | 322 | 2.0 | 6.0 | 0.00 | 0.00 | 0.00 | 66 | 1016.7 |
| 20260506153802 | 78 | 324 | 3.0 | 6.0 | 0.00 | 0.00 | 0.00 | 66 | 1016.7 |
| 20260506153701 | 78 | 312 | 3.0 | 6.0 | 0.00 | 0.00 | 0.00 | 66 | 1016.7 |
| 20260506153601 | 78 | 311 | 2.0 | 6.0 | 0.00 | 0.00 | 0.00 | 66 | 1016.7 |
| 20260506153401 | 78 | 306 | 3.0 | 6.0 | 0.00 | 0.00 | 0.00 | 65 | 1016.8 |
| 20260506153301 | 78 | 315 | 4.0 | 6.0 | 0.00 | 0.00 | 0.00 | 65 | 1016.7 |
| 20260506153201 | 78 | 310 | 2.0 | 6.0 | 0.00 | 0.00 | 0.00 | 64 | 1016.7 |
| 20260506153102 | 79 | 303 | 1.0 | 6.0 | 0.00 | 0.00 | 0.00 | 64 | 1016.8 |
| 20260506153006 | 79 | 301 | 3.0 | 6.0 | 0.00 | 0.00 | 0.00 | 64 | 1016.7 |
| 20260506152901 | 79 | 271 | 6.0 | 6.0 | 0.00 | 0.00 | 0.00 | 65 | 1016.6 |
| 20260506152801 | 79 | 316 | 4.0 | 4.0 | 0.00 | 0.00 | 0.00 | 65 | 1016.6 |
| 20260506152701 | 79 | 336 | 2.0 | 4.0 | 0.00 | 0.00 | 0.00 | 65 | 1016.7 |
| 20260506152602 | 79 | 332 | 2.0 | 4.0 | 0.00 | 0.00 | 0.00 | 66 | 1016.7 |
| 20260506152506 | 79 | 318 | 3.0 | 4.0 | 0.00 | 0.00 | 0.00 | 65 | 1016.7 |
| 20260506152400 | 79 | 314 | 3.0 | 4.0 | 0.00 | 0.00 | 0.00 | 65 | 1016.7 |
| 20260506152201 | 79 | 307 | 3.0 | 5.0 | 0.00 | 0.00 | 0.00 | 66 | 1016.7 |
| 20260506152101 | 78 | 295 | 3.0 | 5.0 | 0.00 | 0.00 | 0.00 | 64 | 1016.6 |
| 20260506152007 | 79 | 130 | 3.0 | 5.0 | 0.00 | 0.00 | 0.00 | 65 | 1016.6 |
| 20260506151801 | 78 | 233 | 0.0 | 5.0 | 0.00 | 0.00 | 0.00 | 65 | 1016.5 |
| 20260506151701 | 78 | 309 | 3.0 | 5.0 | 0.00 | 0.00 | 0.00 | 65 | 1016.4 |
| 20260506151600 | 78 | 12 | 1.0 | 5.0 | 0.00 | 0.00 | 0.00 | 65 | 1016.4 |
| 20260506151401 | 78 | 303 | 3.0 | 5.0 | 0.00 | 0.00 | 0.00 | 66 | 1016.5 |
| 20260506151302 | 78 | 313 | 3.0 | 5.0 | 0.00 | 0.00 | 0.00 | 66 | 1016.4 |
| 20260506151101 | 78 | 324 | 3.0 | 5.0 | 0.00 | 0.00 | 0.00 | 66 | 1016.5 |
| 20260506151006 | 78 | 312 | 3.0 | 5.0 | 0.00 | 0.00 | 0.00 | 65 | 1016.5 |
| 20260506150901 | 79 | 321 | 3.0 | 5.0 | 0.00 | 0.00 | 0.00 | 65 | 1016.5 |
| 20260506150801 | 79 | 308 | 2.0 | 5.0 | 0.00 | 0.00 | 0.00 | 67 | 1016.5 |
| 20260506150701 | 79 | 308 | 0.0 | 5.0 | 0.00 | 0.00 | 0.00 | 67 | 1016.4 |
| 20260506150601 | 79 | 62 | 0.0 | 5.0 | 0.00 | 0.00 | 0.00 | 67 | 1016.3 |
| 20260506150505 | 78 | 357 | 2.0 | 5.0 | 0.00 | 0.00 | 0.00 | 67 | 1016.3 |
| 20260506150401 | 78 | 327 | 0.0 | 5.0 | 0.00 | 0.00 | 0.00 | 67 | 1016.4 |
| 20260506150304 | 78 | 328 | 3.0 | 5.0 | 0.00 | 0.00 | 0.00 | 66 | 1016.3 |
| 20260506150201 | 78 | 315 | 4.0 | 4.0 | 0.00 | 0.00 | 0.00 | 66 | 1016.3 |
| 20260506150008 | 78 | 240 | 3.0 | 4.0 | 0.00 | 0.00 | 0.00 | 69 | 1016.3 |
| 20260506145901 | 77 | 323 | 3.0 | 4.0 | 0.00 | 0.00 | 0.00 | 70 | 1016.2 |
| 20260506145701 | 77 | 226 | 3.0 | 4.0 | 0.00 | 0.00 | 0.00 | 68 | 1016.2 |
| 20260506145506 | 77 | 338 | 3.0 | 4.0 | 0.00 | 0.00 | 0.00 | 68 | 1016.2 |
| 20260506145301 | 77 | 286 | 3.0 | 5.0 | 0.00 | 0.00 | 0.00 | 68 | 1016.2 |
| 20260506145201 | 77 | 323 | 0.0 | 5.0 | 0.00 | 0.00 | 0.00 | 68 | 1016.2 |
| 20260506145101 | 77 | 203 | 1.0 | 5.0 | 0.00 | 0.00 | 0.00 | 68 | 1016.2 |
| 20260506145007 | 77 | 32 | 0.0 | 5.0 | 0.00 | 0.00 | 0.00 | 68 | 1016.2 |
| 20260506144802 | 77 | 281 | 2.0 | 5.0 | 0.00 | 0.00 | 0.00 | 70 | 1016.3 |
| 20260506144702 | 77 | 291 | 2.0 | 5.0 | 0.00 | 0.00 | 0.00 | 70 | 1016.2 |
| 20260506144601 | 77 | 297 | 2.0 | 5.0 | 0.00 | 0.00 | 0.00 | 70 | 1016.2 |
| 20260506144505 | 76 | 328 | 0.0 | 5.0 | 0.00 | 0.00 | 0.00 | 70 | 1016.2 |
| 20260506144401 | 76 | 287 | 1.0 | 4.0 | 0.00 | 0.00 | 0.00 | 71 | 1016.2 |
| 20260506144201 | 76 | 20 | 0.0 | 5.0 | 0.00 | 0.00 | 0.00 | 71 | 1016.3 |
| 20260506144101 | 76 | 205 | 2.0 | 5.0 | 0.00 | 0.00 | 0.00 | 70 | 1016.2 |
| 20260506144006 | 76 | 338 | 0.0 | 5.0 | 0.00 | 0.00 | 0.00 | 72 | 1016.2 |
| 20260506143901 | 76 | 256 | 3.0 | 5.0 | 0.00 | 0.00 | 0.00 | 71 | 1016.2 |
| 20260506143801 | 76 | 71 | 0.0 | 5.0 | 0.00 | 0.00 | 0.00 | 72 | 1016.2 |
| 20260506143702 | 75 | 301 | 2.0 | 5.0 | 0.00 | 0.00 | 0.00 | 71 | 1016.3 |
| 20260506143601 | 75 | 300 | 2.0 | 5.0 | 0.00 | 0.00 | 0.00 | 72 | 1016.2 |
| 20260506143505 | 75 | 286 | 1.0 | 5.0 | 0.00 | 0.00 | 0.00 | 71 | 1016.2 |
| 20260506143401 | 76 | 301 | 3.0 | 5.0 | 0.00 | 0.00 | 0.00 | 73 | 1016.3 |
| 20260506143300 | 76 | 298 | 2.0 | 3.0 | 0.00 | 0.00 | 0.00 | 72 | 1016.3 |
| 20260506143201 | 75 | 233 | 0.0 | 3.0 | 0.00 | 0.00 | 0.00 | 73 | 1016.2 |
| 20260506143102 | 75 | 249 | 0.0 | 4.0 | 0.00 | 0.00 | 0.00 | 72 | 1016.2 |
| 20260506143006 | 75 | 326 | 0.0 | 4.0 | 0.00 | 0.00 | 0.00 | 73 | 1016.2 |
| 20260506142801 | 75 | 156 | 0.0 | 4.0 | 0.00 | 0.00 | 0.00 | 74 | 1016.1 |
| 20260506142701 | 75 | 308 | 2.0 | 4.0 | 0.00 | 0.00 | 0.00 | 74 | 1016.1 |
| 20260506142601 | 75 | 277 | 0.0 | 4.0 | 0.00 | 0.00 | 0.00 | 74 | 1016.2 |
| 20260506142505 | 75 | 277 | 3.0 | 4.0 | 0.00 | 0.00 | 0.00 | 74 | 1016.2 |
| 20260506142401 | 74 | 246 | 0.0 | 5.0 | 0.00 | 0.00 | 0.00 | 75 | 1016.2 |
| 20260506142201 | 74 | 294 | 4.0 | 5.0 | 0.00 | 0.00 | 0.00 | 74 | 1016.1 |
| 20260506142101 | 74 | 288 | 2.0 | 5.0 | 0.00 | 0.00 | 0.00 | 74 | 1016.2 |
| 20260506142005 | 74 | 301 | 1.0 | 5.0 | 0.00 | 0.00 | 0.00 | 74 | 1016.2 |
| 20260506141901 | 74 | 293 | 2.0 | 5.0 | 0.00 | 0.00 | 0.00 | 74 | 1016.2 |
| 20260506141801 | 74 | 309 | 4.0 | 5.0 | 0.00 | 0.00 | 0.00 | 74 | 1016.1 |
| 20260506141702 | 74 | 293 | 3.0 | 5.0 | 0.00 | 0.00 | 0.00 | 75 | 1016.1 |
| 20260506141400 | 74 | 272 | 3.0 | 4.0 | 0.00 | 0.00 | 0.00 | 75 | 1016.1 |
| 20260506141301 | 74 | 264 | 0.0 | 4.0 | 0.00 | 0.00 | 0.00 | 75 | 1016.0 |
| 20260506141201 | 74 | 316 | 2.0 | 4.0 | 0.00 | 0.00 | 0.00 | 75 | 1016.0 |
| 20260506141102 | 74 | 294 | 1.0 | 655.0 | 1.31 | 0.71 | 0.00 | 74 | |
| 20260506141006 | 75 | 260 | 3.0 | 4.0 | 0.00 | 0.00 | 0.00 | 75 | 1016.0 |
| 20260506140900 | 75 | 250 | 2.0 | 4.0 | 0.00 | 0.00 | 0.00 | 75 | 1016.0 |
| 20260506140801 | 75 | 250 | 2.0 | 4.0 | 0.00 | 0.00 | 0.00 | 75 | 1016.0 |
| 20260506140701 | 75 | 297 | 0.0 | 4.0 | 0.00 | 0.00 | 0.00 | 75 | 1015.9 |
| 20260506140601 | 75 | 303 | 2.0 | 4.0 | 0.00 | 0.00 | 0.00 | 75 | 1016.0 |
| 20260506140505 | 75 | 301 | 2.0 | 3.0 | 0.00 | 0.00 | 0.00 | 74 | 1016.0 |
| 20260506140401 | 75 | 298 | 3.0 | 3.0 | 0.00 | 0.00 | 0.00 | 74 | 1015.8 |
| 20260506140301 | 75 | 297 | 0.0 | 3.0 | 0.00 | 0.00 | 0.00 | 75 | 1015.9 |
| 20260506140201 | 75 | 221 | 2.0 | 3.0 | 0.00 | 0.00 | 0.00 | 75 | 1015.8 |
| 20260506140006 | 75 | 345 | 1.0 | 3.0 | 0.00 | 0.00 | 0.00 | 74 | 1015.8 |
| 20260506135901 | 75 | 314 | 0.0 | 3.0 | 0.00 | 0.00 | 0.00 | 74 | 1015.9 |
| 20260506135801 | 75 | 165 | 2.0 | 3.0 | 0.00 | 0.00 | 0.00 | 74 | 1015.9 |
| 20260506135701 | 75 | 244 | 2.0 | 4.0 | 0.00 | 0.00 | 0.00 | 75 | 1015.8 |
| 20260506135601 | 75 | 311 | 0.0 | 4.0 | 0.00 | 0.00 | 0.00 | 76 | 1015.8 |
| 20260506135506 | 75 | 262 | 0.0 | 4.0 | 0.00 | 0.00 | 0.00 | 76 | 1015.8 |
| 20260506135301 | 74 | 195 | 1.0 | 4.0 | 0.00 | 0.00 | 0.00 | 76 | 1015.8 |
| 20260506135201 | 74 | 209 | 3.0 | 4.0 | 0.00 | 0.00 | 0.00 | 76 | 1015.7 |
| 20260506135101 | 74 | 345 | 1.0 | 4.0 | 0.00 | 0.00 | 0.00 | 76 | 1015.7 |
| 20260506135006 | 74 | 20 | 1.0 | 4.0 | 0.00 | 0.00 | 0.00 | 77 | 1015.7 |
| 20260506134901 | 74 | 184 | 4.0 | 4.0 | 0.00 | 0.00 | 0.00 | 77 | 1015.7 |
| 20260506134801 | 74 | 225 | 2.0 | 4.0 | 0.00 | 0.00 | 0.00 | 78 | 1015.7 |
| 20260506134701 | 74 | 218 | 2.0 | 4.0 | 0.00 | 0.00 | 0.00 | 78 | 1015.7 |
| 20260506134604 | 74 | 213 | 0.0 | 4.0 | 0.00 | 0.00 | 0.00 | 78 | 1015.7 |
| 20260506134505 | 73 | 245 | 0.0 | 4.0 | 0.00 | 0.00 | 0.00 | 79 | 1015.6 |
| 20260506134401 | 73 | 351 | 0.0 | 4.0 | 0.00 | 0.00 | 0.00 | 79 | 1015.7 |
| 20260506134201 | 73 | 153 | 0.0 | 4.0 | 0.00 | 0.00 | 0.00 | 80 | 1015.7 |
| 20260506134101 | 73 | 326 | 0.0 | 4.0 | 0.00 | 0.00 | 0.00 | 80 | 1015.7 |
| 20260506134005 | 73 | 275 | 0.0 | 4.0 | 0.00 | 0.00 | 0.00 | 80 | 1015.7 |
| 20260506133801 | 73 | 263 | 2.0 | 4.0 | 0.00 | 0.00 | 0.00 | 81 | 1015.7 |
| 20260506133701 | 72 | 19 | 2.0 | 4.0 | 0.00 | 0.00 | 0.00 | 81 | 1015.6 |
| 20260506133505 | 72 | 304 | 2.0 | 4.0 | 0.00 | 0.00 | 0.00 | 82 | 1015.6 |
| 20260506133401 | 72 | 256 | 0.0 | 4.0 | 0.00 | 0.00 | 0.00 | 83 | 1015.6 |
| 20260506133301 | 72 | 340 | 2.0 | 4.0 | 0.00 | 0.00 | 0.00 | 83 | 1015.5 |
| 20260506133201 | 72 | 245 | 2.0 | 4.0 | 0.00 | 0.00 | 0.00 | 83 | 1015.5 |
| 20260506133101 | 72 | 333 | 0.0 | 4.0 | 0.00 | 0.00 | 0.00 | 84 | 1015.5 |
| 20260506133006 | 71 | 274 | 3.0 | 4.0 | 0.00 | 0.00 | 0.00 | 84 | 1015.5 |
| 20260506132901 | 71 | 214 | 0.0 | 4.0 | 0.00 | 0.00 | 0.00 | 84 | 1015.5 |
| 20260506132802 | 71 | 360 | 3.0 | 4.0 | 0.00 | 0.00 | 0.00 | 84 | 1015.4 |
| 20260506132702 | 71 | 224 | 0.0 | 4.0 | 0.00 | 0.00 | 0.00 | 85 | 1015.4 |
| 20260506132601 | 71 | 349 | 2.0 | 4.0 | 0.00 | 0.00 | 0.00 | 85 | 1015.4 |
| 20260506132301 | 71 | 309 | 1.0 | 4.0 | 0.00 | 0.00 | 0.00 | 86 | 1015.3 |
| 20260506132201 | 71 | 351 | 3.0 | 4.0 | 0.00 | 0.00 | 0.00 | 86 | 1015.2 |
| 20260506132102 | 71 | 139 | 0.0 | 4.0 | 0.00 | 0.00 | 0.00 | 86 | 1015.3 |
| 20260506131901 | 70 | 148 | 0.0 | 4.0 | 0.00 | 0.00 | 0.00 | 87 | 1015.3 |
| 20260506131801 | 70 | 272 | 0.0 | 4.0 | 0.00 | 0.00 | 0.00 | 86 | 1015.2 |
| 20260506131703 | 70 | 272 | 0.0 | 4.0 | 0.00 | 0.00 | 0.00 | 86 | 1015.3 |
| 20260506131602 | 70 | 263 | 2.0 | 3.0 | 0.00 | 0.00 | 0.00 | 87 | 1015.3 |
| 20260506131505 | 70 | 307 | 1.0 | 3.0 | 0.00 | 0.00 | 0.00 | 87 | 1015.3 |
| 20260506131401 | 70 | 251 | 2.0 | 3.0 | 0.00 | 0.00 | 0.00 | 88 | 1015.4 |
| 20260506131301 | 70 | 219 | 1.0 | 3.0 | 0.00 | 0.00 | 0.00 | 88 | 1015.4 |
| 20260506131201 | 70 | 213 | 0.0 | 3.0 | 0.00 | 0.00 | 0.00 | 89 | 1015.4 |
| 20260506131102 | 70 | 328 | 1.0 | 3.0 | 0.00 | 0.00 | 0.00 | 89 | 1015.3 |
| 20260506131005 | 70 | 210 | 0.0 | 3.0 | 0.00 | 0.00 | 0.00 | 89 | 1015.3 |
| 20260506130901 | 69 | 210 | 0.0 | 6.0 | 0.00 | 0.00 | 0.00 | 89 | 1015.3 |
| 20260506130801 | 69 | 210 | 0.0 | 6.0 | 0.00 | 0.00 | 0.00 | 89 | 1015.3 |
| 20260506130701 | 69 | 227 | 0.0 | 6.0 | 0.00 | 0.00 | 0.00 | 89 | 1015.2 |
| 20260506130505 | 69 | 314 | 0.0 | 6.0 | 0.00 | 0.00 | 0.00 | 90 | 1015.2 |
| 20260506130401 | 69 | 210 | 0.0 | 6.0 | 0.00 | 0.00 | 0.00 | 90 | 1015.3 |
| 20260506130301 | 69 | 210 | 0.0 | 6.0 | 0.00 | 0.00 | 0.00 | 90 | 1015.2 |
| 20260506130201 | 69 | 127 | 3.0 | 6.0 | 0.00 | 0.00 | 0.00 | 90 | 1015.2 |
| 20260506130007 | 69 | 195 | 0.0 | 4.0 | 0.00 | 0.00 | 0.00 | 90 | 1015.0 |
| 20260506125901 | 69 | 191 | 0.0 | 4.0 | 0.00 | 0.00 | 0.00 | 90 | 1015.2 |
| 20260506125801 | 69 | 212 | 3.0 | 5.0 | 0.00 | 0.00 | 0.00 | 91 | 1015.1 |
| 20260506125505 | 69 | 211 | 2.0 | 5.0 | 0.00 | 0.00 | 0.00 | 91 | 1015.0 |
| 20260506125401 | 69 | 247 | 0.0 | 5.0 | 0.00 | 0.00 | 0.00 | 91 | 1015.0 |
| 20260506125304 | 69 | 198 | 0.0 | 5.0 | 0.00 | 0.00 | 0.00 | 91 | 1015.0 |
| 20260506125201 | 69 | 198 | 0.0 | 5.0 | 0.00 | 0.00 | 0.00 | 91 | 1015.0 |
| 20260506125101 | 69 | 186 | 0.0 | 5.0 | 0.00 | 0.00 | 0.00 | 91 | 1015.0 |
| 20260506125005 | 69 | 200 | 0.0 | 5.0 | 0.00 | 0.00 | 0.00 | 91 | 1015.0 |
| 20260506124902 | 69 | 238 | 0.0 | 3.0 | 0.00 | 0.00 | 0.00 | 91 | 1014.8 |
| 20260506124801 | 69 | 192 | 2.0 | 3.0 | 0.00 | 0.00 | 0.00 | 91 | 1014.8 |
| 20260506124701 | 69 | 41 | 0.0 | 3.0 | 0.00 | 0.00 | 0.00 | 91 | 1014.8 |
| 20260506124601 | 69 | 214 | 0.0 | 3.0 | 0.00 | 0.00 | 0.00 | 92 | 1014.8 |
| 20260506124505 | 69 | 230 | 0.0 | 3.0 | 0.00 | 0.00 | 0.00 | 92 | 1014.8 |
| 20260506124402 | 69 | 150 | 0.0 | 3.0 | 0.00 | 0.00 | 0.00 | 92 | 1014.8 |
| 20260506124201 | 69 | 122 | 0.0 | 2.0 | 0.00 | 0.00 | 0.00 | 92 | 1014.7 |
| 20260506124102 | 68 | 212 | 0.0 | 2.0 | 0.00 | 0.00 | 0.00 | 93 | 1014.8 |
| 20260506123901 | 68 | 130 | 0.0 | 3.0 | 0.00 | 0.00 | 0.00 | 93 | 1014.7 |
| 20260506123802 | 68 | 169 | 0.0 | 3.0 | 0.00 | 0.00 | 0.00 | 93 | 1014.7 |
| 20260506123702 | 68 | 155 | 0.0 | 3.0 | 0.00 | 0.00 | 0.00 | 93 | 1014.7 |
| 20260506123602 | 68 | 193 | 0.0 | 3.0 | 0.00 | 0.00 | 0.00 | 93 | 1014.6 |
| 20260506123505 | 68 | 226 | 0.0 | 3.0 | 0.00 | 0.00 | 0.00 | 93 | 1014.6 |
| 20260506123402 | 68 | 232 | 0.0 | 5.0 | 0.00 | 0.00 | 0.00 | 93 | 1014.7 |
| 20260506123302 | 68 | 316 | 0.0 | 5.0 | 0.00 | 0.00 | 0.00 | 93 | 1014.7 |
| 20260506123102 | 68 | 44 | 2.0 | 5.0 | 0.00 | 0.00 | 0.00 | 93 | 1014.6 |
| 20260506123006 | 68 | 84 | 0.0 | 5.0 | 0.00 | 0.00 | 0.00 | 93 | 1014.6 |
| 20260506122701 | 68 | 139 | 0.0 | 5.0 | 0.00 | 0.00 | 0.00 | 94 | 1014.7 |
| 20260506122601 | 68 | 141 | 0.0 | 5.0 | 0.00 | 0.00 | 0.00 | 94 | 1014.7 |
| 20260506122305 | 68 | 242 | 0.0 | 3.0 | 0.00 | 0.00 | 0.00 | 94 | 1014.6 |
| 20260506122202 | 68 | 242 | 0.0 | 3.0 | 0.00 | 0.00 | 0.00 | 94 | 1014.6 |
| 20260506122100 | 68 | 56 | 0.0 | 3.0 | 0.00 | 0.00 | 0.00 | 94 | 1014.6 |
| 20260506122006 | 68 | 137 | 1.0 | 3.0 | 0.00 | 0.00 | 0.00 | 94 | 1014.6 |
| 20260506121902 | 68 | 319 | 0.0 | 3.0 | 0.00 | 0.00 | 0.00 | 94 | 1014.6 |
| 20260506121802 | 68 | 47 | 0.0 | 3.0 | 0.00 | 0.00 | 0.00 | 94 | 1014.5 |
| 20260506121602 | 68 | 47 | 0.0 | 3.0 | 0.00 | 0.00 | 0.00 | 94 | 1014.4 |
| 20260506121505 | 68 | 127 | 3.0 | 3.0 | 0.00 | 0.00 | 0.00 | 95 | 1014.4 |
| 20260506121302 | 68 | 26 | 0.0 | 3.0 | 0.00 | 0.00 | 0.00 | 95 | 1014.4 |
| 20260506121101 | 68 | 160 | 0.0 | 3.0 | 0.00 | 0.00 | 0.00 | 95 | 1014.5 |
| 20260506121006 | 68 | 120 | 2.0 | 3.0 | 0.00 | 0.00 | 0.00 | 95 | 1014.5 |
| 20260506120902 | 68 | 155 | 0.0 | 2.0 | 0.00 | 0.00 | 0.00 | 95 | 1014.5 |
| 20260506120801 | 68 | 155 | 0.0 | 2.0 | 0.00 | 0.00 | 0.00 | 95 | 1014.4 |
| 20260506120702 | 68 | 155 | 0.0 | 2.0 | 0.00 | 0.00 | 0.00 | 95 | 1014.4 |
| 20260506120601 | 68 | 155 | 0.0 | 2.0 | 0.00 | 0.00 | 0.00 | 95 | 1014.3 |
| 20260506120505 | 68 | 136 | 0.0 | 2.0 | 0.00 | 0.00 | 0.00 | 95 | 1014.3 |
| 20260506120402 | 68 | 130 | 0.0 | 2.0 | 0.00 | 0.00 | 0.00 | 95 | 1014.4 |
| 20260506120301 | 68 | 143 | 0.0 | 2.0 | 0.00 | 0.00 | 0.00 | 95 | 1014.4 |
| 20260506120201 | 68 | 151 | 0.0 | 2.0 | 0.00 | 0.00 | 0.00 | 95 | 1014.4 |
| 20260506120101 | 67 | 143 | 0.0 | 2.0 | 0.00 | 0.00 | 0.00 | 95 | 1014.4 |
| 20260506120006 | 67 | 143 | 0.0 | 2.0 | 0.00 | 0.00 | 0.00 | 95 | 1014.4 |
| 20260506115901 | 67 | 143 | 0.0 | 2.0 | 0.00 | 0.00 | 0.00 | 95 | 1014.4 |
| 20260506115701 | 67 | 114 | 0.0 | 2.0 | 0.00 | 0.00 | 0.00 | 95 | 1014.2 |
| 20260506115601 | 67 | 234 | 0.0 | 2.0 | 0.00 | 0.00 | 0.00 | 95 | 1014.3 |
| 20260506115506 | 67 | 193 | 0.0 | 2.0 | 0.00 | 0.00 | 0.00 | 95 | 1014.3 |
| 20260506115402 | 67 | 193 | 0.0 | 2.0 | 0.00 | 0.00 | 0.00 | 95 | 1014.3 |
| 20260506115201 | 67 | 136 | 0.0 | 2.0 | 0.00 | 0.00 | 0.00 | 95 | 1014.2 |
| 20260506115006 | 67 | 136 | 0.0 | 2.0 | 0.00 | 0.00 | 0.00 | 95 | 1014.3 |
| 20260506114902 | 67 | 136 | 0.0 | 2.0 | 0.00 | 0.00 | 0.00 | 95 | 1014.2 |
| 20260506114801 | 67 | 136 | 0.0 | 2.0 | 0.00 | 0.00 | 0.00 | 95 | 1014.2 |
| 20260506114701 | 67 | 143 | 1.0 | 2.0 | 0.00 | 0.00 | 0.00 | 95 | 1014.2 |
| 20260506114601 | 67 | 217 | 0.0 | 2.0 | 0.00 | 0.00 | 0.00 | 95 | 1014.1 |
| 20260506114506 | 67 | 217 | 0.0 | 2.0 | 0.00 | 0.00 | 0.00 | 95 | 1014.0 |
| 20260506114401 | 67 | 217 | 0.0 | 2.0 | 0.00 | 0.00 | 0.00 | 95 | 1014.1 |
| 20260506114202 | 67 | 217 | 0.0 | 2.0 | 0.00 | 0.00 | 0.00 | 95 | 1014.0 |
| 20260506114101 | 67 | 217 | 0.0 | 2.0 | 0.00 | 0.00 | 0.00 | 95 | 1013.9 |
| 20260506114006 | 67 | 217 | 0.0 | 2.0 | 0.00 | 0.00 | 0.00 | 95 | 1013.9 |
| 20260506113901 | 67 | 230 | 0.0 | 2.0 | 0.00 | 0.00 | 0.00 | 95 | 1013.9 |
| 20260506113801 | 67 | 221 | 1.0 | 2.0 | 0.00 | 0.00 | 0.00 | 95 | 1013.9 |
| 20260506113701 | 67 | 193 | 0.0 | 2.0 | 0.00 | 0.00 | 0.00 | 95 | 1014.0 |
| 20260506113505 | 67 | 176 | 0.0 | 3.0 | 0.00 | 0.00 | 0.00 | 95 | 1013.9 |
| 20260506113402 | 67 | 155 | 0.0 | 3.0 | 0.00 | 0.00 | 0.00 | 95 | 1013.9 |
| 20260506113302 | 67 | 155 | 2.0 | 3.0 | 0.00 | 0.00 | 0.00 | 95 | 1014.0 |
| 20260506113201 | 67 | 216 | 0.0 | 3.0 | 0.00 | 0.00 | 0.00 | 95 | 1014.0 |
| 20260506113101 | 67 | 218 | 0.0 | 3.0 | 0.00 | 0.00 | 0.00 | 95 | 1014.0 |
| 20260506113006 | 67 | 304 | 0.0 | 3.0 | 0.00 | 0.00 | 0.00 | 95 | 1014.0 |
| 20260506112901 | 67 | 206 | 0.0 | 3.0 | 0.00 | 0.00 | 0.00 | 95 | 1014.0 |
| 20260506112801 | 67 | 188 | 0.0 | 3.0 | 0.00 | 0.00 | 0.00 | 95 | 1013.9 |
| 20260506112701 | 67 | 209 | 0.0 | 3.0 | 0.00 | 0.00 | 0.00 | 95 | 1013.9 |
| 20260506112601 | 66 | 179 | 2.0 | 3.0 | 0.00 | 0.00 | 0.00 | 95 | 1013.9 |
| 20260506112506 | 66 | 46 | 0.0 | 2.0 | 0.00 | 0.00 | 0.00 | 95 | 1013.9 |
| 20260506112402 | 67 | 173 | 0.0 | 2.0 | 0.00 | 0.00 | 0.00 | 95 | 1013.8 |
| 20260506112301 | 66 | 201 | 0.0 | 2.0 | 0.00 | 0.00 | 0.00 | 95 | 1013.8 |
| 20260506112201 | 66 | 213 | 0.0 | 2.0 | 0.00 | 0.00 | 0.00 | 95 | 1013.7 |
| 20260506112101 | 66 | 221 | 0.0 | 2.0 | 0.00 | 0.00 | 0.00 | 95 | 1013.7 |
| 20260506112006 | 66 | 221 | 0.0 | 2.0 | 0.00 | 0.00 | 0.00 | 95 | 1013.7 |
| 20260506111901 | 66 | 210 | 0.0 | 2.0 | 0.00 | 0.00 | 0.00 | 95 | 1013.6 |
| 20260506111701 | 66 | 155 | 0.0 | 2.0 | 0.00 | 0.00 | 0.00 | 95 | 1013.6 |
| 20260506111601 | 66 | 155 | 0.0 | 2.0 | 0.00 | 0.00 | 0.00 | 95 | 1013.5 |
| 20260506111506 | 66 | 206 | 0.0 | 2.0 | 0.00 | 0.00 | 0.00 | 95 | 1013.5 |
| 20260506111302 | 66 | 143 | 0.0 | 2.0 | 0.00 | 0.00 | 0.00 | 95 | 1013.5 |
| 20260506111202 | 66 | 143 | 0.0 | 2.0 | 0.00 | 0.00 | 0.00 | 95 | 1013.5 |
| 20260506111102 | 66 | 143 | 0.0 | 2.0 | 0.00 | 0.00 | 0.00 | 95 | 1013.5 |
| 20260506111005 | 66 | 214 | 0.0 | 2.0 | 0.00 | 0.00 | 0.00 | 95 | 1013.5 |
| 20260506110901 | 66 | 205 | 0.0 | 2.0 | 0.00 | 0.00 | 0.00 | 95 | 1013.5 |
| 20260506110701 | 66 | 225 | 2.0 | 2.0 | 0.00 | 0.00 | 0.00 | 95 | 1013.4 |
| 20260506110505 | 66 | 167 | 0.0 | 2.0 | 0.00 | 0.00 | 0.00 | 95 | 1013.3 |
| 20260506110402 | 66 | 215 | 0.0 | 2.0 | 0.00 | 0.00 | 0.00 | 95 | 1013.3 |
| 20260506110201 | 66 | 243 | 0.0 | 3.0 | 0.00 | 0.00 | 0.00 | 95 | 1013.3 |
| 20260506110100 | 66 | 207 | 0.0 | 3.0 | 0.00 | 0.00 | 0.00 | 95 | 1013.3 |
| 20260506110007 | 66 | 213 | 0.0 | 4.0 | 0.00 | 0.00 | 0.00 | 95 | 1013.3 |
| 20260506105902 | 66 | 213 | 0.0 | 4.0 | 0.00 | 0.00 | 0.00 | 95 | 1013.2 |
| 20260506105802 | 66 | 162 | 0.0 | 4.0 | 0.00 | 0.00 | 0.00 | 95 | 1013.2 |
| 20260506105701 | 66 | 220 | 0.0 | 4.0 | 0.00 | 0.00 | 0.00 | 95 | 1013.1 |
| 20260506105601 | 66 | 226 | 0.0 | 4.0 | 0.00 | 0.00 | 0.00 | 95 | 1013.1 |
| 20260506105505 | 66 | 191 | 0.0 | 4.0 | 0.00 | 0.00 | 0.00 | 95 | 1013.0 |
| 20260506105201 | 66 | 205 | 2.0 | 4.0 | 0.00 | 0.00 | 0.00 | 95 | 1012.9 |
| 20260506105101 | 66 | 132 | 0.0 | 3.0 | 0.00 | 0.00 | 0.00 | 95 | 1013.0 |
| 20260506105005 | 66 | 183 | 0.0 | 3.0 | 0.00 | 0.00 | 0.00 | 95 | 1013.0 |
| 20260506104901 | 66 | 223 | 2.0 | 3.0 | 0.00 | 0.00 | 0.00 | 95 | 1012.8 |
| 20260506104702 | 66 | 198 | 2.0 | 4.0 | 0.00 | 0.00 | 0.00 | 95 | 1012.9 |
| 20260506104601 | 66 | 186 | 2.0 | 4.0 | 0.00 | 0.00 | 0.00 | 95 | 1013.0 |
| 20260506104505 | 66 | 360 | 0.0 | 4.0 | 0.00 | 0.00 | 0.00 | 95 | 1013.0 |
| 20260506104302 | 66 | 190 | 2.0 | 4.0 | 0.00 | 0.00 | 0.00 | 95 | 1013.0 |
| 20260506104201 | 66 | 176 | 2.0 | 4.0 | 0.00 | 0.00 | 0.00 | 95 | 1012.9 |
| 20260506104101 | 66 | 188 | 3.0 | 5.0 | 0.00 | 0.00 | 0.00 | 95 | 1013.0 |
| 20260506104007 | 66 | 176 | 2.0 | 5.0 | 0.00 | 0.00 | 0.00 | 95 | 1013.0 |
| 20260506103901 | 66 | 220 | 0.0 | 5.0 | 0.00 | 0.00 | 0.00 | 95 | 1012.9 |
| 20260506103801 | 66 | 212 | 0.0 | 5.0 | 0.00 | 0.00 | 0.00 | 95 | 1012.9 |
| 20260506103701 | 66 | 151 | 1.0 | 5.0 | 0.00 | 0.00 | 0.00 | 95 | 1012.8 |
| 20260506103601 | 66 | 195 | 1.0 | 5.0 | 0.00 | 0.00 | 0.00 | 95 | 1012.8 |
| 20260506103505 | 66 | 360 | 2.0 | 5.0 | 0.00 | 0.00 | 0.00 | 95 | 1012.8 |
| 20260506103401 | 66 | 181 | 3.0 | 5.0 | 0.00 | 0.00 | 0.00 | 95 | 1012.8 |
| 20260506103302 | 66 | 146 | 1.0 | 5.0 | 0.00 | 0.00 | 0.00 | 95 | 1012.8 |
| 20260506103202 | 66 | 167 | 0.0 | 4.0 | 0.00 | 0.00 | 0.00 | 95 | 1012.8 |
| 20260506103101 | 66 | 195 | 2.0 | 4.0 | 0.00 | 0.00 | 0.00 | 95 | 1012.7 |
| 20260506103006 | 66 | 181 | 0.0 | 4.0 | 0.00 | 0.00 | 0.00 | 95 | 1012.7 |
| 20260506102902 | 66 | 157 | 3.0 | 4.0 | 0.00 | 0.00 | 0.00 | 95 | 1012.8 |
| 20260506102602 | 66 | 146 | 0.0 | 4.0 | 0.00 | 0.00 | 0.00 | 95 | 1012.8 |
| 20260506102505 | 66 | 108 | 2.0 | 4.0 | 0.00 | 0.00 | 0.00 | 95 | 1012.8 |
| 20260506102401 | 66 | 155 | 3.0 | 4.0 | 0.00 | 0.00 | 0.00 | 95 | 1012.8 |
| 20260506102301 | 66 | 162 | 0.0 | 4.0 | 0.00 | 0.00 | 0.00 | 95 | 1012.8 |
| 20260506102200 | 66 | 201 | 0.0 | 4.0 | 0.00 | 0.00 | 0.00 | 95 | 1012.8 |
| 20260506102101 | 66 | 211 | 0.0 | 4.0 | 0.00 | 0.00 | 0.00 | 95 | 1012.9 |
| 20260506102007 | 66 | 167 | 0.0 | 4.0 | 0.00 | 0.00 | 0.00 | 95 | 1012.9 |
| 20260506101901 | 66 | 178 | 3.0 | 4.0 | 0.00 | 0.00 | 0.00 | 95 | 1012.8 |
| 20260506101801 | 66 | 193 | 0.0 | 4.0 | 0.00 | 0.00 | 0.00 | 95 | 1012.8 |
| 20260506101702 | 66 | 205 | 0.0 | 4.0 | 0.00 | 0.00 | 0.00 | 95 | 1012.8 |
| 20260506101602 | 66 | 185 | 3.0 | 4.0 | 0.00 | 0.00 | 0.00 | 95 | 1012.9 |
| 20260506101506 | 66 | 203 | 3.0 | 4.0 | 0.00 | 0.00 | 0.00 | 95 | 1012.9 |
| 20260506101401 | 66 | 165 | 0.0 | 4.0 | 0.00 | 0.00 | 0.00 | 95 | 1012.8 |
| 20260506101202 | 66 | 158 | 0.0 | 4.0 | 0.00 | 0.00 | 0.00 | 95 | 1012.9 |
| 20260506101102 | 66 | 194 | 4.0 | 4.0 | 0.00 | 0.00 | 0.00 | 95 | 1012.9 |
| 20260506100800 | 66 | 249 | 0.0 | 4.0 | 0.00 | 0.00 | 0.00 | 94 | 1012.8 |
| 20260506100701 | 66 | 249 | 0.0 | 4.0 | 0.00 | 0.00 | 0.00 | 94 | 1012.8 |
| 20260506100505 | 66 | 160 | 1.0 | 4.0 | 0.00 | 0.00 | 0.00 | 94 | 1012.9 |
| 20260506100400 | 66 | 162 | 2.0 | 4.0 | 0.00 | 0.00 | 0.00 | 94 | 1013.0 |
| 20260506100301 | 66 | 176 | 0.0 | 4.0 | 0.00 | 0.00 | 0.00 | 94 | 1012.9 |
| 20260506100202 | 66 | 150 | 3.0 | 4.0 | 0.00 | 0.00 | 0.00 | 94 | 1012.9 |
| 20260506100101 | 66 | 193 | 0.0 | 4.0 | 0.00 | 0.00 | 0.00 | 94 | 1013.0 |
| 20260506100008 | 66 | 195 | 2.0 | 4.0 | 0.00 | 0.00 | 0.00 | 94 | 1013.0 |
| 20260506095901 | 66 | 214 | 0.0 | 4.0 | 0.00 | 0.00 | 0.00 | 94 | 1013.0 |
| 20260506095800 | 66 | 174 | 0.0 | 4.0 | 0.00 | 0.00 | 0.00 | 94 | 1013.0 |
| 20260506095601 | 66 | 221 | 1.0 | 4.0 | 0.00 | 0.00 | 0.00 | 94 | 1013.0 |
| 20260506095505 | 66 | 173 | 3.0 | 4.0 | 0.00 | 0.00 | 0.00 | 94 | 1013.0 |
| 20260506095401 | 66 | 169 | 2.0 | 4.0 | 0.00 | 0.00 | 0.00 | 94 | 1013.0 |
| 20260506095301 | 66 | 185 | 0.0 | 4.0 | 0.00 | 0.00 | 0.00 | 94 | 1013.0 |
| 20260506095201 | 66 | 146 | 0.0 | 4.0 | 0.00 | 0.00 | 0.00 | 94 | 1013.0 |
| 20260506095101 | 66 | 169 | 2.0 | 4.0 | 0.00 | 0.00 | 0.00 | 94 | 1012.9 |
| 20260506095006 | 66 | 164 | 0.0 | 4.0 | 0.00 | 0.00 | 0.00 | 94 | 1013.0 |
| 20260506094902 | 66 | 200 | 3.0 | 3.0 | 0.00 | 0.00 | 0.00 | 94 | 1013.0 |
| 20260506094801 | 66 | 178 | 0.0 | 3.0 | 0.00 | 0.00 | 0.00 | 94 | 1013.0 |
| 20260506094601 | 66 | 213 | 3.0 | 3.0 | 0.00 | 0.00 | 0.00 | 94 | 1013.0 |
| 20260506094402 | 65 | 213 | 1.0 | 3.0 | 0.00 | 0.00 | 0.00 | 94 | 1013.0 |
| 20260506094301 | 65 | 220 | 1.0 | 3.0 | 0.00 | 0.00 | 0.00 | 94 | 1013.0 |
| 20260506094201 | 65 | 143 | 2.0 | 3.0 | 0.00 | 0.00 | 0.00 | 94 | 1013.0 |
| 20260506094101 | 65 | 211 | 0.0 | 3.0 | 0.00 | 0.00 | 0.00 | 93 | 1013.0 |
| 20260506094005 | 65 | 199 | 0.0 | 3.0 | 0.00 | 0.00 | 0.00 | 93 | 1012.9 |
| 20260506093903 | 65 | 210 | 0.0 | 4.0 | 0.00 | 0.00 | 0.00 | 93 | 1013.0 |
| 20260506093802 | 65 | 194 | 0.0 | 4.0 | 0.00 | 0.00 | 0.00 | 93 | 1013.0 |
| 20260506093701 | 65 | 247 | 1.0 | 4.0 | 0.00 | 0.00 | 0.00 | 93 | 1012.9 |
| 20260506093601 | 65 | 215 | 0.0 | 4.0 | 0.00 | 0.00 | 0.00 | 93 | 1012.9 |
| 20260506093505 | 65 | 207 | 0.0 | 4.0 | 0.00 | 0.00 | 0.00 | 93 | 1013.0 |
| 20260506093401 | 65 | 195 | 3.0 | 4.0 | 0.00 | 0.00 | 0.00 | 93 | 1013.0 |
| 20260506093301 | 65 | 153 | 0.0 | 4.0 | 0.00 | 0.00 | 0.00 | 93 | 1013.0 |
| 20260506093101 | 65 | 165 | 0.0 | 4.0 | 0.00 | 0.00 | 0.00 | 93 | 1013.0 |
| 20260506093006 | 65 | 115 | 0.0 | 4.0 | 0.00 | 0.00 | 0.00 | 93 | 1013.0 |
| 20260506092901 | 65 | 235 | 0.0 | 3.0 | 0.00 | 0.00 | 0.00 | 93 | 1013.0 |
| 20260506092802 | 65 | 155 | 2.0 | 3.0 | 0.00 | 0.00 | 0.00 | 93 | 1013.0 |
| 20260506092701 | 65 | 185 | 3.0 | 4.0 | 0.00 | 0.00 | 0.00 | 93 | 1013.0 |
| 20260506092600 | 65 | 195 | 1.0 | 4.0 | 0.00 | 0.00 | 0.00 | 93 | 1012.9 |
| 20260506092402 | 65 | 201 | 3.0 | 4.0 | 0.00 | 0.00 | 0.00 | 93 | 1013.0 |
| 20260506092301 | 65 | 192 | 3.0 | 4.0 | 0.00 | 0.00 | 0.00 | 93 | 1012.9 |
| 20260506092100 | 65 | 162 | 0.0 | 4.0 | 0.00 | 0.00 | 0.00 | 93 | 1013.0 |
| 20260506092006 | 65 | 203 | 2.0 | 4.0 | 0.00 | 0.00 | 0.00 | 93 | 1013.0 |
| 20260506091802 | 65 | 262 | 1.0 | 4.0 | 0.00 | 0.00 | 0.00 | 92 | 1013.0 |
| 20260506091702 | 65 | 215 | 2.0 | 3.0 | 0.00 | 0.00 | 0.00 | 92 | 1013.1 |
| 20260506091601 | 65 | 188 | 2.0 | 3.0 | 0.00 | 0.00 | 0.00 | 92 | 1013.2 |
| 20260506091506 | 65 | 195 | 1.0 | 3.0 | 0.00 | 0.00 | 0.00 | 92 | 1013.2 |
| 20260506091300 | 65 | 190 | 1.0 | 4.0 | 0.00 | 0.00 | 0.00 | 92 | 1013.1 |
| 20260506091201 | 65 | 209 | 1.0 | 4.0 | 0.00 | 0.00 | 0.00 | 92 | 1013.1 |
| 20260506091102 | 65 | 237 | 1.0 | 4.0 | 0.00 | 0.00 | 0.00 | 92 | 1013.1 |
| 20260506091006 | 65 | 204 | 2.0 | 4.0 | 0.00 | 0.00 | 0.00 | 92 | 1013.1 |
| 20260506090902 | 65 | 239 | 1.0 | 4.0 | 0.00 | 0.00 | 0.00 | 92 | 1013.1 |
| 20260506090801 | 65 | 232 | 2.0 | 4.0 | 0.00 | 0.00 | 0.00 | 92 | 1013.1 |
| 20260506090505 | 65 | 212 | 3.0 | 4.0 | 0.00 | 0.00 | 0.00 | 92 | 1013.1 |
| 20260506090303 | 65 | 212 | 3.0 | 4.0 | 0.00 | 0.00 | 0.00 | 92 | 1013.1 |
| 20260506090202 | 65 | 214 | 3.0 | 4.0 | 0.00 | 0.00 | 0.00 | 92 | 1013.1 |
| 20260506090101 | 65 | 216 | 1.0 | 4.0 | 0.00 | 0.00 | 0.00 | 92 | 1013.1 |
| 20260506090008 | 65 | 190 | 2.0 | 4.0 | 0.00 | 0.00 | 0.00 | 92 | 1013.1 |
| 20260506085901 | 65 | 210 | 2.0 | 4.0 | 0.00 | 0.00 | 0.00 | 91 | 1013.1 |
| 20260506085802 | 65 | 207 | 3.0 | 3.0 | 0.00 | 0.00 | 0.00 | 91 | 1013.1 |
| 20260506085701 | 65 | 195 | 2.0 | 3.0 | 0.00 | 0.00 | 0.00 | 91 | 1013.1 |
| 20260506085505 | 65 | 211 | 3.0 | 3.0 | 0.00 | 0.00 | 0.00 | 91 | 1013.2 |
| 20260506085401 | 65 | 197 | 2.0 | 3.0 | 0.00 | 0.00 | 0.00 | 92 | 1013.2 |
| 20260506085305 | 65 | 204 | 2.0 | 3.0 | 0.00 | 0.00 | 0.00 | 91 | 1013.2 |
| 20260506085201 | 65 | 179 | 0.0 | 3.0 | 0.00 | 0.00 | 0.00 | 92 | 1013.2 |
| 20260506085102 | 65 | 207 | 2.0 | 3.0 | 0.00 | 0.00 | 0.00 | 91 | 1013.2 |
| 20260506085005 | 65 | 209 | 1.0 | 3.0 | 0.00 | 0.00 | 0.00 | 91 | 1013.3 |
| 20260506084901 | 65 | 208 | 2.0 | 3.0 | 0.00 | 0.00 | 0.00 | 91 | 1013.2 |
| 20260506084802 | 65 | 199 | 2.0 | 3.0 | 0.00 | 0.00 | 0.00 | 91 | 1013.3 |
| 20260506084700 | 65 | 212 | 2.0 | 3.0 | 0.00 | 0.00 | 0.00 | 91 | 1013.3 |
| 20260506084601 | 65 | 207 | 0.0 | 3.0 | 0.00 | 0.00 | 0.00 | 91 | 1013.3 |
| 20260506084505 | 65 | 210 | 2.0 | 3.0 | 0.00 | 0.00 | 0.00 | 91 | 1013.3 |
| 20260506084301 | 65 | 218 | 1.0 | 3.0 | 0.00 | 0.00 | 0.00 | 91 | 1013.3 |
| 20260506084202 | 65 | 223 | 1.0 | 3.0 | 0.00 | 0.00 | 0.00 | 91 | 1013.3 |
| 20260506084101 | 65 | 193 | 2.0 | 3.0 | 0.00 | 0.00 | 0.00 | 91 | 1013.4 |
| 20260506084006 | 65 | 209 | 2.0 | 3.0 | 0.00 | 0.00 | 0.00 | 91 | 1013.4 |
| 20260506083902 | 65 | 198 | 3.0 | 3.0 | 0.00 | 0.00 | 0.00 | 91 | 1013.4 |
| 20260506083801 | 65 | 188 | 2.0 | 3.0 | 0.00 | 0.00 | 0.00 | 91 | 1013.4 |
| 20260506083701 | 65 | 202 | 2.0 | 3.0 | 0.00 | 0.00 | 0.00 | 91 | 1013.4 |
| 20260506083600 | 65 | 206 | 1.0 | 3.0 | 0.00 | 0.00 | 0.00 | 91 | 1013.3 |
| 20260506083505 | 65 | 201 | 0.0 | 3.0 | 0.00 | 0.00 | 0.00 | 91 | 1013.3 |
| 20260506083401 | 65 | 216 | 2.0 | 3.0 | 0.00 | 0.00 | 0.00 | 91 | 1013.3 |
| 20260506083301 | 65 | 222 | 0.0 | 3.0 | 0.00 | 0.00 | 0.00 | 91 | 1013.3 |
| 20260506083201 | 65 | 194 | 3.0 | 3.0 | 0.00 | 0.00 | 0.00 | 91 | 1013.3 |
| 20260506083101 | 65 | 179 | 2.0 | 3.0 | 0.00 | 0.00 | 0.00 | 90 | 1013.3 |
| 20260506083006 | 65 | 153 | 2.0 | 3.0 | 0.00 | 0.00 | 0.00 | 90 | 1013.3 |
| 20260506082801 | 65 | 155 | 0.0 | 4.0 | 0.00 | 0.00 | 0.00 | 90 | 1013.4 |
| 20260506082601 | 65 | 174 | 0.0 | 4.0 | 0.00 | 0.00 | 0.00 | 90 | 1013.4 |
| 20260506082505 | 65 | 202 | 2.0 | 4.0 | 0.00 | 0.00 | 0.00 | 90 | 1013.4 |
| 20260506082401 | 65 | 202 | 2.0 | 4.0 | 0.00 | 0.00 | 0.00 | 90 | 1013.4 |
| 20260506082301 | 65 | 220 | 0.0 | 4.0 | 0.00 | 0.00 | 0.00 | 90 | 1013.4 |
| 20260506082201 | 65 | 188 | 2.0 | 4.0 | 0.00 | 0.00 | 0.00 | 90 | 1013.4 |
| 20260506082101 | 65 | 195 | 3.0 | 4.0 | 0.00 | 0.00 | 0.00 | 90 | 1013.4 |
| 20260506082006 | 65 | 214 | 3.0 | 4.0 | 0.00 | 0.00 | 0.00 | 90 | 1013.4 |
| 20260506081901 | 65 | 209 | 2.0 | 3.0 | 0.00 | 0.00 | 0.00 | 90 | 1013.3 |
| 20260506081801 | 65 | 197 | 0.0 | 3.0 | 0.00 | 0.00 | 0.00 | 90 | 1013.3 |
| 20260506081702 | 65 | 195 | 0.0 | 3.0 | 0.00 | 0.00 | 0.00 | 90 | 1013.3 |
| 20260506081601 | 65 | 192 | 0.0 | 3.0 | 0.00 | 0.00 | 0.00 | 90 | 1013.3 |
| 20260506081505 | 65 | 201 | 0.0 | 3.0 | 0.00 | 0.00 | 0.00 | 90 | 1013.3 |
| 20260506081302 | 65 | 188 | 2.0 | 3.0 | 0.00 | 0.00 | 0.00 | 90 | 1013.3 |
| 20260506081200 | 65 | 207 | 3.0 | 3.0 | 0.00 | 0.00 | 0.00 | 90 | 1013.3 |
| 20260506081101 | 65 | 200 | 2.0 | 3.0 | 0.00 | 0.00 | 0.00 | 90 | 1013.3 |
| 20260506080902 | 65 | 174 | 2.0 | 3.0 | 0.00 | 0.00 | 0.00 | 90 | 1013.3 |
| 20260506080701 | 65 | 210 | 2.0 | 3.0 | 0.00 | 0.00 | 0.00 | 90 | 1013.4 |
| 20260506080601 | 65 | 201 | 1.0 | 3.0 | 0.00 | 0.00 | 0.00 | 89 | 1013.4 |
| 20260506080505 | 65 | 197 | 3.0 | 3.0 | 0.00 | 0.00 | 0.00 | 89 | 1013.4 |
| 20260506080401 | 65 | 188 | 0.0 | 3.0 | 0.00 | 0.00 | 0.00 | 89 | 1013.4 |
| 20260506080301 | 65 | 211 | 2.0 | 3.0 | 0.00 | 0.00 | 0.00 | 89 | 1013.4 |
| 20260506080201 | 65 | 214 | 2.0 | 3.0 | 0.00 | 0.00 | 0.00 | 89 | 1013.3 |
| 20260506073505 | 64 | 193 | 1.0 | 3.0 | 0.00 | 0.00 | 0.00 | 88 | 1013.5 |
| 20260506073300 | 64 | 217 | 0.0 | 3.0 | 0.00 | 0.00 | 0.00 | 88 | 1013.4 |
| 20260506073202 | 64 | 200 | 2.0 | 3.0 | 0.00 | 0.00 | 0.00 | 88 | 1013.4 |
| 20260506073007 | 64 | 213 | 1.0 | 3.0 | 0.00 | 0.00 | 0.00 | 88 | 1013.5 |
| 20260506072901 | 64 | 222 | 0.0 | 3.0 | 0.00 | 0.00 | 0.00 | 88 | 1013.4 |
| 20260506072800 | 64 | 206 | 0.0 | 3.0 | 0.00 | 0.00 | 0.00 | 88 | 1013.4 |
| 20260506072702 | 64 | 210 | 0.0 | 3.0 | 0.00 | 0.00 | 0.00 | 88 | 1013.4 |
| 20260506072505 | 64 | 174 | 0.0 | 3.0 | 0.00 | 0.00 | 0.00 | 88 | 1013.4 |
| 20260506072400 | 64 | 208 | 1.0 | 4.0 | 0.00 | 0.00 | 0.00 | 88 | 1013.4 |
| 20260506072301 | 64 | 174 | 0.0 | 4.0 | 0.00 | 0.00 | 0.00 | 88 | 1013.4 |
| 20260506072200 | 64 | 188 | 2.0 | 4.0 | 0.00 | 0.00 | 0.00 | 88 | 1013.4 |
| 20260506072102 | 64 | 185 | 0.0 | 4.0 | 0.00 | 0.00 | 0.00 | 88 | 1013.4 |
| 20260506072005 | 65 | 195 | 2.0 | 4.0 | 0.00 | 0.00 | 0.00 | 88 | 1013.4 |
| 20260506071901 | 64 | 210 | 0.0 | 4.0 | 0.00 | 0.00 | 0.00 | 88 | 1013.4 |
| 20260506071801 | 65 | 217 | 0.0 | 4.0 | 0.00 | 0.00 | 0.00 | 88 | 1013.4 |
| 20260506071701 | 65 | 211 | 0.0 | 4.0 | 0.00 | 0.00 | 0.00 | 88 | 1013.4 |
| 20260506071600 | 65 | 220 | 1.0 | 4.0 | 0.00 | 0.00 | 0.00 | 88 | 1013.3 |
| 20260506071402 | 65 | 199 | 0.0 | 3.0 | 0.00 | 0.00 | 0.00 | 88 | 1013.4 |
| 20260506071301 | 65 | 213 | 2.0 | 3.0 | 0.00 | 0.00 | 0.00 | 88 | 1013.4 |
| 20260506071202 | 65 | 178 | 2.0 | 3.0 | 0.00 | 0.00 | 0.00 | 88 | 1013.4 |
| 20260506071007 | 65 | 223 | 2.0 | 3.0 | 0.00 | 0.00 | 0.00 | 88 | 1013.4 |
| 20260506070801 | 65 | 220 | 1.0 | 3.0 | 0.00 | 0.00 | 0.00 | 88 | 1013.5 |
| 20260506070601 | 65 | 215 | 3.0 | 3.0 | 0.00 | 0.00 | 0.00 | 88 | 1013.5 |
| 20260506070504 | 65 | 225 | 2.0 | 3.0 | 0.00 | 0.00 | 0.00 | 88 | 1013.5 |
| 20260506070402 | 65 | 234 | 2.0 | 3.0 | 0.00 | 0.00 | 0.00 | 88 | 1013.4 |
| 20260506070201 | 65 | 193 | 2.0 | 3.0 | 0.00 | 0.00 | 0.00 | 88 | 1013.6 |
| 20260506062505 | 66 | 211 | 1.0 | 3.0 | 0.00 | 0.00 | 0.00 | 86 | 1013.6 |
| 20260506062402 | 66 | 197 | 3.0 | 3.0 | 0.00 | 0.00 | 0.00 | 86 | 1013.7 |
| 20260506062300 | 66 | 211 | 2.0 | 3.0 | 0.00 | 0.00 | 0.00 | 86 | 1013.6 |
| 20260506062201 | 66 | 216 | 3.0 | 3.0 | 0.00 | 0.00 | 0.00 | 86 | 1013.6 |
| 20260506062101 | 66 | 204 | 2.0 | 3.0 | 0.00 | 0.00 | 0.00 | 86 | 1013.6 |
| 20260506062006 | 66 | 169 | 2.0 | 3.0 | 0.00 | 0.00 | 0.00 | 86 | 1013.6 |
| 20260506061902 | 66 | 188 | 2.0 | 3.0 | 0.00 | 0.00 | 0.00 | 86 | 1013.7 |
| 20260506061801 | 66 | 191 | 2.0 | 3.0 | 0.00 | 0.00 | 0.00 | 86 | 1013.7 |
| 20260506061601 | 66 | 222 | 2.0 | 3.0 | 0.00 | 0.00 | 0.00 | 86 | 1013.7 |
| 20260506061505 | 66 | 217 | 1.0 | 3.0 | 0.00 | 0.00 | 0.00 | 86 | 1013.6 |
| 20260506061401 | 66 | 190 | 2.0 | 3.0 | 0.00 | 0.00 | 0.00 | 86 | 1013.7 |
| 20260506061301 | 66 | 207 | 2.0 | 3.0 | 0.00 | 0.00 | 0.00 | 86 | 1013.7 |
| 20260506061201 | 66 | 205 | 0.0 | 3.0 | 0.00 | 0.00 | 0.00 | 86 | 1013.8 |
| 20260506061101 | 66 | 217 | 2.0 | 3.0 | 0.00 | 0.00 | 0.00 | 86 | 1013.8 |
| 20260506061005 | 66 | 188 | 1.0 | 3.0 | 0.00 | 0.00 | 0.00 | 86 | 1013.7 |
| 20260506060901 | 66 | 213 | 0.0 | 3.0 | 0.00 | 0.00 | 0.00 | 86 | 1013.8 |
| 20260506060800 | 66 | 186 | 2.0 | 3.0 | 0.00 | 0.00 | 0.00 | 86 | 1013.8 |
| 20260506060601 | 66 | 218 | 2.0 | 3.0 | 0.00 | 0.00 | 0.00 | 86 | 1013.9 |
| 20260506060301 | 66 | 206 | 2.0 | 3.0 | 0.00 | 0.00 | 0.00 | 85 | 1013.9 |
| 20260506060201 | 66 | 210 | 3.0 | 3.0 | 0.00 | 0.00 | 0.00 | 85 | 1013.9 |
| 20260506051400 | 67 | 219 | 3.0 | 4.0 | 0.00 | 0.00 | 0.00 | 82 | 1013.9 |
| 20260506051259 | 67 | 195 | 3.0 | 4.0 | 0.00 | 0.00 | 0.00 | 82 | 1013.9 |
| 20260506051201 | 67 | 198 | 2.0 | 3.0 | 0.00 | 0.00 | 0.00 | 82 | 1014.0 |
| 20260506051101 | 67 | 205 | 2.0 | 3.0 | 0.00 | 0.00 | 0.00 | 82 | 1014.0 |
| 20260506051005 | 67 | 205 | 1.0 | 3.0 | 0.00 | 0.00 | 0.00 | 82 | 1014.0 |
| 20260506050901 | 67 | 198 | 2.0 | 3.0 | 0.00 | 0.00 | 0.00 | 82 | 1014.0 |
| 20260506050800 | 67 | 199 | 1.0 | 3.0 | 0.00 | 0.00 | 0.00 | 82 | 1014.0 |
| 20260506050701 | 67 | 178 | 2.0 | 3.0 | 0.00 | 0.00 | 0.00 | 82 | 1014.0 |
| 20260506050602 | 67 | 184 | 0.0 | 3.0 | 0.00 | 0.00 | 0.00 | 82 | 1014.0 |
| 20260506050504 | 67 | 218 | 2.0 | 3.0 | 0.00 | 0.00 | 0.00 | 82 | 1014.0 |
| 20260506050400 | 67 | 224 | 1.0 | 3.0 | 0.00 | 0.00 | 0.00 | 82 | 1014.0 |
| 20260506050300 | 67 | 210 | 1.0 | 3.0 | 0.00 | 0.00 | 0.00 | 82 | 1014.0 |
| 20260506050200 | 67 | 219 | 2.0 | 3.0 | 0.00 | 0.00 | 0.00 | 82 | 1014.0 |
| 20260506045103 | 67 | 213 | 3.0 | 4.0 | 0.00 | 0.00 | 0.00 | 82 | 1014.3 |
| 20260506045006 | 67 | 206 | 0.0 | 4.0 | 0.00 | 0.00 | 0.00 | 82 | 1014.3 |
| 20260506044901 | 67 | 210 | 2.0 | 4.0 | 0.00 | 0.00 | 0.00 | 81 | 1014.3 |
| 20260506044802 | 67 | 207 | 3.0 | 4.0 | 0.00 | 0.00 | 0.00 | 81 | 1014.1 |
| 20260506044702 | 67 | 165 | 0.0 | 4.0 | 0.00 | 0.00 | 0.00 | 81 | 1014.1 |
| 20260506044602 | 67 | 214 | 1.0 | 3.0 | 0.00 | 0.00 | 0.00 | 81 | 1014.2 |
| 20260506044506 | 67 | 214 | 1.0 | 3.0 | 0.00 | 0.00 | 0.00 | 81 | 1014.2 |
| 20260506044401 | 67 | 206 | 2.0 | 3.0 | 0.00 | 0.00 | 0.00 | 81 | 1014.2 |
| 20260506044101 | 67 | 220 | 2.0 | 3.0 | 0.00 | 0.00 | 0.00 | 81 | 1014.2 |
| 20260506044006 | 67 | 202 | 2.0 | 3.0 | 0.00 | 0.00 | 0.00 | 81 | 1014.2 |
| 20260506043802 | 67 | 195 | 2.0 | 3.0 | 0.00 | 0.00 | 0.00 | 81 | 1014.3 |
| 20260506043702 | 67 | 194 | 2.0 | 3.0 | 0.00 | 0.00 | 0.00 | 80 | 1014.3 |
| 20260506043505 | 67 | 209 | 2.0 | 3.0 | 0.00 | 0.00 | 0.00 | 80 | 1014.3 |
| 20260506043402 | 67 | 202 | 1.0 | 3.0 | 0.00 | 0.00 | 0.00 | 80 | 1014.3 |
| 20260506043301 | 67 | 204 | 1.0 | 3.0 | 0.00 | 0.00 | 0.00 | 80 | 1014.4 |
| 20260506043202 | 67 | 174 | 2.0 | 3.0 | 0.00 | 0.00 | 0.00 | 80 | 1014.3 |
| 20260506043102 | 67 | 204 | 2.0 | 3.0 | 0.00 | 0.00 | 0.00 | 80 | 1014.5 |
| 20260506043007 | 67 | 202 | 2.0 | 3.0 | 0.00 | 0.00 | 0.00 | 80 | 1014.5 |
| 20260506042902 | 67 | 210 | 0.0 | 3.0 | 0.00 | 0.00 | 0.00 | 80 | 1014.5 |
| 20260506042802 | 67 | 208 | 2.0 | 3.0 | 0.00 | 0.00 | 0.00 | 80 | 1014.5 |
| 20260506042601 | 67 | 210 | 0.0 | 3.0 | 0.00 | 0.00 | 0.00 | 80 | 1014.5 |
| 20260506042505 | 67 | 155 | 2.0 | 3.0 | 0.00 | 0.00 | 0.00 | 80 | 1014.5 |
| 20260506042402 | 67 | 171 | 2.0 | 3.0 | 0.00 | 0.00 | 0.00 | 80 | 1014.5 |
| 20260506042305 | 67 | 191 | 2.0 | 3.0 | 0.00 | 0.00 | 0.00 | 80 | 1014.5 |
| 20260506042201 | 67 | 191 | 2.0 | 3.0 | 0.00 | 0.00 | 0.00 | 80 | 1014.6 |
| 20260506042101 | 67 | 193 | 2.0 | 3.0 | 0.00 | 0.00 | 0.00 | 80 | 1014.6 |
| 20260506041903 | 67 | 195 | 0.0 | 3.0 | 0.00 | 0.00 | 0.00 | 79 | 1014.7 |
| 20260506041603 | 67 | 193 | 2.0 | 3.0 | 0.00 | 0.00 | 0.00 | 79 | 1014.8 |
| 20260506041506 | 67 | 216 | 1.0 | 3.0 | 0.00 | 0.00 | 0.00 | 79 | 1014.8 |
| 20260506041401 | 68 | 215 | 2.0 | 3.0 | 0.00 | 0.00 | 0.00 | 79 | 1014.8 |
| 20260506041202 | 68 | 223 | 2.0 | 2.0 | 0.00 | 0.00 | 0.00 | 79 | 1014.9 |
| 20260506041103 | 68 | 197 | 0.0 | 2.0 | 0.00 | 0.00 | 0.00 | 79 | 1014.8 |
| 20260506041006 | 68 | 209 | 2.0 | 2.0 | 0.00 | 0.00 | 0.00 | 79 | 1014.8 |
| 20260506040902 | 68 | 200 | 1.0 | 2.0 | 0.00 | 0.00 | 0.00 | 79 | 1014.9 |
| 20260506040802 | 68 | 211 | 0.0 | 2.0 | 0.00 | 0.00 | 0.00 | 78 | 1014.9 |
| 20260506040702 | 68 | 208 | 1.0 | 2.0 | 0.00 | 0.00 | 0.00 | 78 | 1014.8 |
| 20260506040505 | 68 | 205 | 0.0 | 3.0 | 0.00 | 0.00 | 0.00 | 78 | 1014.9 |
| 20260506040402 | 68 | 228 | 1.0 | 3.0 | 0.00 | 0.00 | 0.00 | 78 | 1014.8 |
| 20260506040302 | 68 | 197 | 0.0 | 3.0 | 0.00 | 0.00 | 0.00 | 78 | 1014.8 |
| 20260506040202 | 68 | 215 | 0.0 | 3.0 | 0.00 | 0.00 | 0.00 | 78 | 1014.8 |
| 20260506040007 | 68 | 169 | 0.0 | 3.0 | 0.00 | 0.00 | 0.00 | 78 | 1014.8 |
| 20260506035903 | 68 | 214 | 0.0 | 3.0 | 0.00 | 0.00 | 0.00 | 78 | 1014.8 |
| 20260506035803 | 68 | 215 | 0.0 | 3.0 | 0.00 | 0.00 | 0.00 | 78 | 1014.8 |
| 20260506035703 | 68 | 224 | 3.0 | 3.0 | 0.00 | 0.00 | 0.00 | 78 | 1014.8 |
| 20260506035603 | 68 | 195 | 2.0 | 2.0 | 0.00 | 0.00 | 0.00 | 78 | 1014.7 |
| 20260506035506 | 68 | 208 | 0.0 | 2.0 | 0.00 | 0.00 | 0.00 | 78 | 1014.7 |
| 20260506035403 | 68 | 167 | 0.0 | 2.0 | 0.00 | 0.00 | 0.00 | 78 | 1014.7 |
| 20260506035103 | 68 | 185 | 0.0 | 1.0 | 0.00 | 0.00 | 0.00 | 77 | 1014.8 |
| 20260506035006 | 68 | 208 | 0.0 | 1.0 | 0.00 | 0.00 | 0.00 | 77 | 1014.8 |
| 20260506034903 | 68 | 208 | 0.0 | 1.0 | 0.00 | 0.00 | 0.00 | 77 | 1014.9 |
| 20260506034804 | 68 | 208 | 0.0 | 1.0 | 0.00 | 0.00 | 0.00 | 77 | 1014.8 |
| 20260506034603 | 68 | 219 | 0.0 | 1.0 | 0.00 | 0.00 | 0.00 | 77 | 1014.7 |
| 20260506034506 | 68 | 219 | 0.0 | 1.0 | 0.00 | 0.00 | 0.00 | 77 | 1014.7 |
| 20260506034403 | 68 | 198 | 0.0 | 1.0 | 0.00 | 0.00 | 0.00 | 77 | 1014.7 |
| 20260506034302 | 68 | 198 | 0.0 | 1.0 | 0.00 | 0.00 | 0.00 | 77 | 1014.7 |
| 20260506034202 | 68 | 198 | 0.0 | 1.0 | 0.00 | 0.00 | 0.00 | 77 | 1014.7 |
| 20260506034102 | 68 | 211 | 0.0 | 2.0 | 0.00 | 0.00 | 0.00 | 77 | 1014.8 |
| 20260506034006 | 68 | 185 | 0.0 | 2.0 | 0.00 | 0.00 | 0.00 | 77 | 1014.8 |
| 20260506033803 | 68 | 160 | 0.0 | 2.0 | 0.00 | 0.00 | 0.00 | 77 | 1014.8 |
| 20260506033704 | 68 | 160 | 0.0 | 2.0 | 0.00 | 0.00 | 0.00 | 77 | 1014.8 |
| 20260506033605 | 68 | 164 | 0.0 | 2.0 | 0.00 | 0.00 | 0.00 | 77 | 1014.8 |
| 20260506033507 | 69 | 197 | 0.0 | 2.0 | 0.00 | 0.00 | 0.00 | 77 | 1014.9 |
| 20260506033403 | 69 | 210 | 0.0 | 2.0 | 0.00 | 0.00 | 0.00 | 77 | 1014.8 |
| 20260506033304 | 68 | 165 | 0.0 | 2.0 | 0.00 | 0.00 | 0.00 | 77 | 1014.8 |
| 20260506033203 | 69 | 137 | 0.0 | 1.0 | 0.00 | 0.00 | 0.00 | 77 | 1014.8 |
| 20260506033104 | 69 | 222 | 0.0 | 1.0 | 0.00 | 0.00 | 0.00 | 77 | 1014.8 |
| 20260506033008 | 69 | 222 | 0.0 | 1.0 | 0.00 | 0.00 | 0.00 | 77 | 1014.8 |
| 20260506032903 | 69 | 222 | 0.0 | 1.0 | 0.00 | 0.00 | 0.00 | 77 | 1014.8 |
| 20260506032804 | 69 | 222 | 0.0 | 1.0 | 0.00 | 0.00 | 0.00 | 77 | 1014.7 |
| 20260506032703 | 69 | 222 | 0.0 | 1.0 | 0.00 | 0.00 | 0.00 | 76 | 1014.8 |
| 20260506032602 | 69 | 226 | 0.0 | 1.0 | 0.00 | 0.00 | 0.00 | 76 | 1014.7 |
| 20260506032507 | 69 | 226 | 0.0 | 1.0 | 0.00 | 0.00 | 0.00 | 76 | 1014.7 |
| 20260506032402 | 69 | 226 | 0.0 | 2.0 | 0.00 | 0.00 | 0.00 | 76 | 1014.6 |
| 20260506032203 | 69 | 220 | 0.0 | 2.0 | 0.00 | 0.00 | 0.00 | 76 | 1014.6 |
| 20260506032102 | 69 | 202 | 0.0 | 2.0 | 0.00 | 0.00 | 0.00 | 76 | 1014.6 |
| 20260506032007 | 69 | 207 | 0.0 | 2.0 | 0.00 | 0.00 | 0.00 | 76 | 1014.6 |
| 20260506031904 | 69 | 207 | 0.0 | 2.0 | 0.00 | 0.00 | 0.00 | 76 | 1014.7 |
| 20260506031804 | 69 | 207 | 0.0 | 2.0 | 0.00 | 0.00 | 0.00 | 76 | 1014.7 |
| 20260506031506 | 69 | 208 | 1.0 | 2.0 | 0.00 | 0.00 | 0.00 | 76 | 1014.7 |
| 20260506031403 | 69 | 162 | 0.0 | 2.0 | 0.00 | 0.00 | 0.00 | 75 | 1014.6 |
| 20260506031304 | 69 | 162 | 0.0 | 2.0 | 0.00 | 0.00 | 0.00 | 75 | 1014.6 |
| 20260506031203 | 69 | 185 | 0.0 | 2.0 | 0.00 | 0.00 | 0.00 | 75 | 1014.6 |
| 20260506031103 | 69 | 165 | 2.0 | 2.0 | 0.00 | 0.00 | 0.00 | 75 | 1014.6 |
| 20260506031007 | 69 | 191 | 0.0 | 2.0 | 0.00 | 0.00 | 0.00 | 75 | 1014.7 |
| 20260506030902 | 69 | 191 | 0.0 | 2.0 | 0.00 | 0.00 | 0.00 | 75 | 1014.7 |
| 20260506030803 | 69 | 191 | 0.0 | 2.0 | 0.00 | 0.00 | 0.00 | 75 | 1014.7 |
| 20260506030605 | 69 | 204 | 0.0 | 2.0 | 0.00 | 0.00 | 0.00 | 75 | 1014.7 |
| 20260506030402 | 69 | 220 | 0.0 | 2.0 | 0.00 | 0.00 | 0.00 | 75 | 1014.6 |
| 20260506030302 | 69 | 221 | 0.0 | 2.0 | 0.00 | 0.00 | 0.00 | 75 | 1014.6 |
| 20260506030203 | 69 | 222 | 0.0 | 2.0 | 0.00 | 0.00 | 0.00 | 75 | 1014.5 |
| 20260506025903 | 70 | 234 | 0.0 | 2.0 | 0.00 | 0.00 | 0.00 | 75 | 1014.5 |
| 20260506025804 | 70 | 217 | 0.0 | 2.0 | 0.00 | 0.00 | 0.00 | 74 | 1014.5 |
| 20260506025704 | 70 | 217 | 0.0 | 2.0 | 0.00 | 0.00 | 0.00 | 74 | 1014.5 |
| 20260506025603 | 70 | 210 | 0.0 | 2.0 | 0.00 | 0.00 | 0.00 | 74 | 1014.4 |
| 20260506025506 | 70 | 238 | 0.0 | 1.0 | 0.00 | 0.00 | 0.00 | 74 | 1014.4 |
| 20260506025404 | 70 | 238 | 0.0 | 1.0 | 0.00 | 0.00 | 0.00 | 74 | 1014.4 |
| 20260506025305 | 70 | 238 | 0.0 | 1.0 | 0.00 | 0.00 | 0.00 | 74 | 1014.3 |
| 20260506025203 | 70 | 238 | 0.0 | 1.0 | 0.00 | 0.00 | 0.00 | 74 | 1014.3 |
| 20260506025104 | 70 | 238 | 0.0 | 1.0 | 0.00 | 0.00 | 0.00 | 74 | 1014.3 |
| 20260506024903 | 70 | 238 | 0.0 | 1.0 | 0.00 | 0.00 | 0.00 | 74 | 1014.4 |
| 20260506024804 | 70 | 238 | 0.0 | 1.0 | 0.00 | 0.00 | 0.00 | 73 | 1014.4 |
| 20260506024704 | 70 | 225 | 1.0 | 1.0 | 0.00 | 0.00 | 0.00 | 73 | 1014.4 |
| 20260506024304 | 70 | 251 | 0.0 | 0.0 | 0.00 | 0.00 | 0.00 | 73 | 1014.3 |
| 20260506024203 | 70 | 251 | 0.0 | 0.0 | 0.00 | 0.00 | 0.00 | 73 | 1014.2 |
| 20260506024103 | 70 | 23 | 0.0 | 0.0 | 0.00 | 0.00 | 0.00 | 73 | 1014.3 |
| 20260506024006 | 70 | 23 | 0.0 | 0.0 | 0.00 | 0.00 | 0.00 | 73 | 1014.3 |
| 20260506023802 | 70 | 23 | 0.0 | 1.0 | 0.00 | 0.00 | 0.00 | 73 | 1014.3 |
| 20260506023605 | 70 | 23 | 0.0 | 3.0 | 0.00 | 0.00 | 0.00 | 73 | 1014.3 |
| 20260506023506 | 70 | 23 | 0.0 | 3.0 | 0.00 | 0.00 | 0.00 | 73 | 1014.3 |
| 20260506023403 | 70 | 321 | 0.0 | 3.0 | 0.00 | 0.00 | 0.00 | 72 | 1014.3 |
| 20260506023303 | 71 | 150 | 0.0 | 3.0 | 0.00 | 0.00 | 0.00 | 72 | 1014.2 |
| 20260506023202 | 71 | 150 | 0.0 | 3.0 | 0.00 | 0.00 | 0.00 | 72 | 1014.2 |
| 20260506023104 | 71 | 150 | 0.0 | 3.0 | 0.00 | 0.00 | 0.00 | 72 | 1014.3 |
| 20260506023006 | 71 | 139 | 0.0 | 3.0 | 0.00 | 0.00 | 0.00 | 72 | 1014.3 |
| 20260506022904 | 71 | 139 | 0.0 | 3.0 | 0.00 | 0.00 | 0.00 | 72 | 1014.3 |
| 20260506022803 | 71 | 52 | 3.0 | 3.0 | 0.00 | 0.00 | 0.00 | 72 | 1014.5 |
| 20260506022702 | 71 | 186 | 0.0 | 2.0 | 0.00 | 0.00 | 0.00 | 72 | 1014.4 |
| 20260506022505 | 71 | 186 | 0.0 | 2.0 | 0.00 | 0.00 | 0.00 | 72 | 1014.5 |
| 20260506022403 | 71 | 205 | 0.0 | 2.0 | 0.00 | 0.00 | 0.00 | 72 | 1014.4 |
| 20260506022306 | 71 | 205 | 0.0 | 2.0 | 0.00 | 0.00 | 0.00 | 72 | 1014.4 |
| 20260506022203 | 71 | 205 | 0.0 | 2.0 | 0.00 | 0.00 | 0.00 | 72 | 1014.4 |
| 20260506022006 | 71 | 205 | 0.0 | 2.0 | 0.00 | 0.00 | 0.00 | 72 | 1014.3 |
| 20260506021902 | 71 | 205 | 0.0 | 2.0 | 0.00 | 0.00 | 0.00 | 71 | 1014.3 |
| 20260506021705 | 71 | 249 | 0.0 | 2.0 | 0.00 | 0.00 | 0.00 | 71 | 1014.4 |
| 20260506021603 | 71 | 249 | 0.0 | 2.0 | 0.00 | 0.00 | 0.00 | 71 | 1014.3 |
| 20260506021506 | 71 | 249 | 0.0 | 2.0 | 0.00 | 0.00 | 0.00 | 71 | 1014.3 |
| 20260506021404 | 71 | 249 | 0.0 | 2.0 | 0.00 | 0.00 | 0.00 | 71 | 1014.3 |
| 20260506021303 | 71 | 249 | 0.0 | 2.0 | 0.00 | 0.00 | 0.00 | 71 | 1014.3 |
| 20260506021203 | 71 | 144 | 0.0 | 2.0 | 0.00 | 0.00 | 0.00 | 71 | 1014.3 |
| 20260506021104 | 71 | 144 | 0.0 | 2.0 | 0.00 | 0.00 | 0.00 | 71 | 1014.4 |
| 20260506021007 | 71 | 144 | 0.0 | 2.0 | 0.00 | 0.00 | 0.00 | 71 | 1014.3 |
| 20260506020804 | 71 | 333 | 0.0 | 2.0 | 0.00 | 0.00 | 0.00 | 70 | 1014.3 |
| 20260506020703 | 72 | 263 | 0.0 | 2.0 | 0.00 | 0.00 | 0.00 | 70 | 1014.3 |
| 20260506020603 | 72 | 263 | 0.0 | 2.0 | 0.00 | 0.00 | 0.00 | 70 | 1014.4 |
| 20260506020507 | 72 | 263 | 0.0 | 2.0 | 0.00 | 0.00 | 0.00 | 70 | 1014.4 |
| 20260506020404 | 72 | 330 | 0.0 | 3.0 | 0.00 | 0.00 | 0.00 | 70 | 1014.4 |
| 20260506020302 | 72 | 330 | 0.0 | 3.0 | 0.00 | 0.00 | 0.00 | 70 | 1014.3 |
| 20260506020202 | 72 | 321 | 0.0 | 3.0 | 0.00 | 0.00 | 0.00 | 70 | 1014.3 |
| 20260506020007 | 72 | 63 | 0.0 | 3.0 | 0.00 | 0.00 | 0.00 | 70 | 1014.3 |
| 20260506015803 | 72 | 63 | 0.0 | 3.0 | 0.00 | 0.00 | 0.00 | 70 | 1014.4 |
| 20260506015702 | 72 | 63 | 0.0 | 3.0 | 0.00 | 0.00 | 0.00 | 69 | 1014.3 |
| 20260506015602 | 72 | 63 | 0.0 | 3.0 | 0.00 | 0.00 | 0.00 | 70 | 1014.3 |
| 20260506015401 | 72 | 17 | 0.0 | 2.0 | 0.00 | 0.00 | 0.00 | 69 | 1014.4 |
| 20260506015305 | 72 | 17 | 0.0 | 2.0 | 0.00 | 0.00 | 0.00 | 69 | 1014.4 |
| 20260506015203 | 72 | 17 | 0.0 | 4.0 | 0.00 | 0.00 | 0.00 | 69 | 1014.3 |
| 20260506015102 | 72 | 210 | 0.0 | 4.0 | 0.00 | 0.00 | 0.00 | 69 | 1014.3 |
| 20260506015006 | 72 | 210 | 0.0 | 4.0 | 0.00 | 0.00 | 0.00 | 69 | 1014.3 |
| 20260506014702 | 72 | 33 | 0.0 | 4.0 | 0.00 | 0.00 | 0.00 | 68 | 1014.3 |
| 20260506014602 | 72 | 232 | 0.0 | 4.0 | 0.00 | 0.00 | 0.00 | 68 | 1014.4 |
| 20260506014506 | 72 | 277 | 0.0 | 4.0 | 0.00 | 0.00 | 0.00 | 68 | 1014.4 |
| 20260506014401 | 72 | 277 | 0.0 | 4.0 | 0.00 | 0.00 | 0.00 | 68 | 1014.3 |
| 20260506014302 | 72 | 333 | 0.0 | 4.0 | 0.00 | 0.00 | 0.00 | 68 | 1014.3 |
| 20260506014202 | 72 | 34 | 0.0 | 3.0 | 0.00 | 0.00 | 0.00 | 68 | 1014.4 |
| 20260506014102 | 72 | 311 | 0.0 | 3.0 | 0.00 | 0.00 | 0.00 | 68 | 1014.2 |
| 20260506013902 | 73 | 310 | 0.0 | 3.0 | 0.00 | 0.00 | 0.00 | 68 | 1014.2 |
| 20260506013602 | 73 | 310 | 0.0 | 3.0 | 0.00 | 0.00 | 0.00 | 67 | 1014.1 |
| 20260506013506 | 73 | 26 | 0.0 | 3.0 | 0.00 | 0.00 | 0.00 | 67 | 1014.1 |
| 20260506013402 | 73 | 356 | 0.0 | 3.0 | 0.00 | 0.00 | 0.00 | 67 | 1014.1 |
| 20260506013301 | 73 | 281 | 0.0 | 3.0 | 0.00 | 0.00 | 0.00 | 67 | 1014.1 |
| 20260506013102 | 73 | 281 | 0.0 | 3.0 | 0.00 | 0.00 | 0.00 | 67 | 1014.1 |
| 20260506012902 | 73 | 50 | 0.0 | 3.0 | 0.00 | 0.00 | 0.00 | 67 | 1014.1 |